Peotone Weather
Station Historical Data
 
Daily Summary for April 15, 2014 Units:  English    Metric   Both
« Previous Day
Next Day »
Daily Weekly Monthly Yearly Custom
  Current: High: Low: Average:
Temperature: 28.7 °F 38.8 °F 25.2 °F 31.9 °F
Dew Point: 23.6 °F 29.4 °F 17.8 °F 23.6 °F
Humidity: 81% 93% 47% 73%
Wind Speed: 0.0mph 23.0mph 0.0mph 6.5mph
Wind Gust: 0.0mph 24.1mph - -
WindCalm - - NW
Pressure: 30.26 in 30.26 in 30.00 in -
Precipitation: 0.00 in      
Historical Graphs
 
 
Tabular Data for April 15, 2014
Time Temperature Dew Point Pressure Wind Wind Speed Wind Gust Humidity Rainfall Rate (Hourly) solar Conditions
00:00 31.2 °F 29.4 °F 30.00 in NW 8.1 mph 17.2 mph 93% 0.00 in 0.00 W/m2
00:01 31.2 °F 29.4 °F 30.00 in NW 8.1 mph 10.3 mph 93% 0.00 in 0.00 W/m2
00:02 31.1 °F 29.3 °F 30.00 in NW 11.5 mph 11.5 mph 93% 0.00 in 0.00 W/m2
00:04 31.1 °F 29.0 °F 30.00 in NNW 13.8 mph 14.9 mph 92% 0.00 in 0.00 W/m2
00:05 31.1 °F 29.0 °F 30.00 in NNW 11.5 mph 14.9 mph 92% 0.00 in 0.00 W/m2
00:06 31.0 °F 29.0 °F 30.00 in NW 10.3 mph 13.8 mph 92% 0.00 in 0.00 W/m2
00:08 31.0 °F 29.0 °F 30.00 in NNW 5.8 mph 13.8 mph 92% 0.00 in 0.00 W/m2
00:10 31.0 °F 29.0 °F 30.00 in NNW 10.3 mph 13.8 mph 92% 0.00 in 0.00 W/m2
00:11 31.0 °F 29.0 °F 30.00 in NW 4.6 mph 8.1 mph 92% 0.00 in 0.00 W/m2
00:13 31.0 °F 29.0 °F 30.01 in NW 8.1 mph 8.1 mph 92% 0.00 in 0.00 W/m2
00:16 31.0 °F 29.0 °F 30.01 in WNW 5.8 mph 10.3 mph 92% 0.00 in 0.00 W/m2
00:17 31.0 °F 29.0 °F 30.01 in NW 6.9 mph 9.2 mph 92% 0.00 in 0.00 W/m2
00:18 31.0 °F 29.0 °F 30.01 in NW 8.1 mph 16.1 mph 92% 0.00 in 0.00 W/m2
00:19 31.0 °F 29.0 °F 30.01 in NNW 10.3 mph 16.1 mph 92% 0.00 in 0.00 W/m2
00:20 30.9 °F 28.9 °F 30.01 in NW 12.6 mph 17.2 mph 92% 0.00 in 0.00 W/m2
00:21 30.9 °F 28.9 °F 30.00 in NNW 9.2 mph 17.2 mph 92% 0.00 in 0.00 W/m2
00:23 30.8 °F 28.8 °F 30.00 in NNW 13.8 mph 14.9 mph 92% 0.00 in 0.00 W/m2
00:24 30.8 °F 28.8 °F 30.00 in NNW 9.2 mph 14.9 mph 92% 0.00 in 0.00 W/m2
00:25 30.8 °F 28.8 °F 30.00 in NW 11.5 mph 14.9 mph 92% 0.00 in 0.00 W/m2
00:26 30.8 °F 28.8 °F 30.01 in NNW 8.1 mph 14.9 mph 92% 0.00 in 0.00 W/m2
00:28 30.7 °F 28.7 °F 30.00 in NW 17.2 mph 17.2 mph 92% 0.00 in 0.00 W/m2
00:29 30.7 °F 28.7 °F 30.01 in NNW 9.2 mph 17.2 mph 92% 0.00 in 0.00 W/m2
00:31 30.7 °F 28.7 °F 30.01 in WNW 5.8 mph 10.3 mph 92% 0.00 in 0.00 W/m2
00:34 30.6 °F 28.3 °F 30.01 in NW 13.8 mph 14.9 mph 91% 0.00 in 0.00 W/m2
00:37 30.6 °F 28.3 °F 30.00 in NNW 9.2 mph 14.9 mph 91% 0.00 in 0.00 W/m2
00:38 30.6 °F 28.3 °F 30.00 in NW 9.2 mph 14.9 mph 91% 0.00 in 0.00 W/m2
00:39 30.6 °F 28.3 °F 30.00 in NW 10.3 mph 14.9 mph 91% 0.00 in 0.00 W/m2
00:40 30.5 °F 28.2 °F 30.00 in NW 11.5 mph 17.2 mph 91% 0.00 in 0.00 W/m2
00:41 30.5 °F 28.2 °F 30.01 in NW 11.5 mph 11.5 mph 91% 0.00 in 0.00 W/m2
00:42 30.5 °F 28.2 °F 30.00 in NW 5.8 mph 11.5 mph 91% 0.00 in 0.00 W/m2
00:43 30.5 °F 28.2 °F 30.01 in NW 11.5 mph 13.8 mph 91% 0.00 in 0.00 W/m2
00:44 30.5 °F 28.2 °F 30.00 in NNW 9.2 mph 13.8 mph 91% 0.00 in 0.00 W/m2
00:46 30.4 °F 28.1 °F 30.01 in NW 9.2 mph 10.3 mph 91% 0.00 in 0.00 W/m2
00:47 30.4 °F 28.1 °F 30.01 in NW 12.6 mph 12.6 mph 91% 0.00 in 0.00 W/m2
00:48 30.3 °F 28.0 °F 30.01 in NW 5.8 mph 12.6 mph 91% 0.00 in 0.00 W/m2
00:49 30.3 °F 28.0 °F 30.01 in NNW 9.2 mph 12.6 mph 91% 0.00 in 0.00 W/m2
00:50 30.3 °F 28.0 °F 30.01 in NW 11.5 mph 12.6 mph 91% 0.00 in 0.00 W/m2
00:52 30.3 °F 28.0 °F 30.01 in NW 8.1 mph 11.5 mph 91% 0.00 in 0.00 W/m2
00:53 30.3 °F 28.0 °F 30.01 in North 9.2 mph 11.5 mph 91% 0.00 in 0.00 W/m2
00:54 30.2 °F 27.9 °F 30.01 in NNW 8.1 mph 11.5 mph 91% 0.00 in 0.00 W/m2
00:56 30.2 °F 27.9 °F 30.01 in NNW 9.2 mph 12.6 mph 91% 0.00 in 0.00 W/m2
00:57 30.2 °F 27.9 °F 30.01 in NW 8.1 mph 12.6 mph 91% 0.00 in 0.00 W/m2
00:58 30.2 °F 27.9 °F 30.01 in NNW 6.9 mph 12.6 mph 91% 0.00 in 0.00 W/m2
00:59 30.1 °F 27.8 °F 30.01 in NW 8.1 mph 12.6 mph 91% 0.00 in 0.00 W/m2
01:00 30.1 °F 27.8 °F 30.01 in NW 4.6 mph 12.6 mph 91% 0.00 in 0.00 W/m2
01:02 30.1 °F 27.8 °F 30.01 in NNW 5.8 mph 9.2 mph 91% 0.00 in 0.00 W/m2
01:03 30.1 °F 27.8 °F 30.01 in NW 5.8 mph 9.2 mph 91% 0.00 in 0.00 W/m2
01:04 30.1 °F 27.8 °F 30.01 in NNW 4.6 mph 9.2 mph 91% 0.00 in 0.00 W/m2
01:06 30.0 °F 27.7 °F 30.01 in North 8.1 mph 11.5 mph 91% 0.00 in 0.00 W/m2
01:07 30.0 °F 27.7 °F 30.01 in WNW 6.9 mph 8.1 mph 91% 0.00 in 0.00 W/m2
01:09 30.0 °F 27.7 °F 30.01 in NW 5.8 mph 11.5 mph 91% 0.00 in 0.00 W/m2
01:10 29.9 °F 27.6 °F 30.01 in NNW 9.2 mph 11.5 mph 91% 0.00 in 0.00 W/m2
01:11 29.9 °F 27.6 °F 30.01 in NW 8.1 mph 11.5 mph 91% 0.00 in 0.00 W/m2
01:13 29.9 °F 27.6 °F 30.01 in NW 5.8 mph 9.2 mph 91% 0.00 in 0.00 W/m2
01:14 29.9 °F 27.6 °F 30.01 in NNW 6.9 mph 9.2 mph 91% 0.00 in 0.00 W/m2
01:15 29.9 °F 27.6 °F 30.01 in WNW 8.1 mph 10.3 mph 91% 0.00 in 0.00 W/m2
01:16 29.8 °F 27.5 °F 30.01 in NNW 10.3 mph 10.3 mph 91% 0.00 in 0.00 W/m2
01:17 29.9 °F 27.6 °F 30.01 in NW 6.9 mph 10.3 mph 91% 0.00 in 0.00 W/m2
01:19 29.8 °F 27.5 °F 30.01 in NW 9.2 mph 10.3 mph 91% 0.00 in 0.00 W/m2
01:20 29.7 °F 27.4 °F 30.01 in NW 9.2 mph 10.3 mph 91% 0.00 in 0.00 W/m2
01:21 29.7 °F 27.4 °F 30.01 in NW 5.8 mph 10.3 mph 91% 0.00 in 0.00 W/m2
01:22 29.7 °F 27.4 °F 30.01 in NW 10.3 mph 10.3 mph 91% 0.00 in 0.00 W/m2
01:25 29.7 °F 27.4 °F 30.01 in NNW 4.6 mph 10.3 mph 91% 0.00 in 0.00 W/m2
01:27 29.6 °F 27.3 °F 30.01 in WNW 6.9 mph 8.1 mph 91% 0.00 in 0.00 W/m2
01:30 29.6 °F 27.3 °F 30.01 in NW 9.2 mph 13.8 mph 91% 0.00 in 0.00 W/m2
01:31 29.6 °F 27.3 °F 30.01 in NNW 4.6 mph 13.8 mph 91% 0.00 in 0.00 W/m2
01:32 29.5 °F 27.2 °F 30.01 in NW 8.1 mph 10.3 mph 91% 0.00 in 0.00 W/m2
01:33 29.5 °F 27.2 °F 30.01 in NW 11.5 mph 11.5 mph 91% 0.00 in 0.00 W/m2
01:34 29.5 °F 27.2 °F 30.01 in NNW 4.6 mph 11.5 mph 91% 0.00 in 0.00 W/m2
01:36 29.5 °F 27.2 °F 30.01 in NNW 5.8 mph 5.8 mph 91% 0.00 in 0.00 W/m2
01:37 29.5 °F 27.2 °F 30.01 in NNW 4.6 mph 10.3 mph 91% 0.00 in 0.00 W/m2
01:38 29.5 °F 27.2 °F 30.01 in NW 5.8 mph 10.3 mph 91% 0.00 in 0.00 W/m2
01:39 29.5 °F 27.2 °F 30.01 in NNW 11.5 mph 11.5 mph 91% 0.00 in 0.00 W/m2
01:41 29.4 °F 27.1 °F 30.01 in NW 9.2 mph 9.2 mph 91% 0.00 in 0.00 W/m2
01:42 29.4 °F 27.1 °F 30.01 in NW 5.8 mph 9.2 mph 91% 0.00 in 0.00 W/m2
01:43 29.4 °F 27.1 °F 30.01 in NW 4.6 mph 9.2 mph 91% 0.00 in 0.00 W/m2
01:45 29.4 °F 27.1 °F 30.01 in NW 4.6 mph 9.2 mph 91% 0.00 in 0.00 W/m2
01:46 29.4 °F 27.1 °F 30.01 in NW 6.9 mph 11.5 mph 91% 0.00 in 0.00 W/m2
01:47 29.4 °F 27.1 °F 30.01 in NW 5.8 mph 8.1 mph 91% 0.00 in 0.00 W/m2
01:48 29.3 °F 27.0 °F 30.01 in WNW 8.1 mph 10.3 mph 91% 0.00 in 0.00 W/m2
01:49 29.3 °F 27.0 °F 30.01 in NW 4.6 mph 11.5 mph 91% 0.00 in 0.00 W/m2
01:50 29.3 °F 27.0 °F 30.01 in WNW 5.8 mph 11.5 mph 91% 0.00 in 0.00 W/m2
01:52 29.3 °F 26.7 °F 30.01 in NNW 8.1 mph 12.6 mph 90% 0.00 in 0.00 W/m2
01:54 29.3 °F 26.7 °F 30.01 in NW 6.9 mph 12.6 mph 90% 0.00 in 0.00 W/m2
01:55 29.2 °F 26.6 °F 30.01 in NW 5.8 mph 12.6 mph 90% 0.00 in 0.00 W/m2
01:56 29.3 °F 26.7 °F 30.01 in NW 3.4 mph 12.6 mph 90% 0.00 in 0.00 W/m2
01:58 29.2 °F 26.6 °F 30.01 in NW 9.2 mph 9.2 mph 90% 0.00 in 0.00 W/m2
02:01 29.2 °F 26.6 °F 30.01 in NNW 11.5 mph 12.6 mph 90% 0.00 in 0.00 W/m2
02:02 29.2 °F 26.6 °F 30.01 in NW 8.1 mph 12.6 mph 90% 0.00 in 0.00 W/m2
02:03 29.2 °F 26.6 °F 30.01 in NNW 6.9 mph 14.9 mph 90% 0.00 in 0.00 W/m2
02:04 29.2 °F 26.6 °F 30.01 in NW 5.8 mph 14.9 mph 90% 0.00 in 0.00 W/m2
02:07 29.1 °F 26.5 °F 30.01 in NW 9.2 mph 11.5 mph 90% 0.00 in 0.00 W/m2
02:08 29.0 °F 26.4 °F 30.01 in NW 9.2 mph 11.5 mph 90% 0.00 in 0.00 W/m2
02:09 29.0 °F 26.4 °F 30.01 in NW 9.2 mph 12.6 mph 90% 0.00 in 0.00 W/m2
02:10 29.0 °F 26.4 °F 30.01 in NW 8.1 mph 12.6 mph 90% 0.00 in 0.00 W/m2
02:11 29.0 °F 26.4 °F 30.01 in NNW 5.8 mph 12.6 mph 90% 0.00 in 0.00 W/m2
02:13 29.0 °F 26.4 °F 30.01 in NNW 8.1 mph 9.2 mph 90% 0.00 in 0.00 W/m2
02:14 29.0 °F 26.4 °F 30.01 in NNW 13.8 mph 13.8 mph 90% 0.00 in 0.00 W/m2
02:15 28.9 °F 26.3 °F 30.01 in NNW 5.8 mph 13.8 mph 90% 0.00 in 0.00 W/m2
02:16 28.9 °F 26.3 °F 30.01 in WNW 4.6 mph 5.8 mph 90% 0.00 in 0.00 W/m2
02:19 28.8 °F 26.2 °F 30.01 in North 6.9 mph 12.6 mph 90% 0.00 in 0.00 W/m2
02:20 28.8 °F 26.2 °F 30.01 in NNW 6.9 mph 12.6 mph 90% 0.00 in 0.00 W/m2
02:21 28.8 °F 26.2 °F 30.01 in NW 8.1 mph 8.1 mph 90% 0.00 in 0.00 W/m2
02:22 28.8 °F 26.2 °F 30.01 in NNW 4.6 mph 8.1 mph 90% 0.00 in 0.00 W/m2
02:25 28.8 °F 26.2 °F 30.01 in NNW 10.3 mph 12.6 mph 90% 0.00 in 0.00 W/m2
02:26 28.8 °F 26.2 °F 30.01 in NW 6.9 mph 6.9 mph 90% 0.00 in 0.00 W/m2
02:27 28.8 °F 26.2 °F 30.01 in NNW 9.2 mph 10.3 mph 90% 0.00 in 0.00 W/m2
02:31 28.7 °F 25.9 °F 30.01 in NW 9.2 mph 9.2 mph 89% 0.00 in 0.00 W/m2
02:32 28.7 °F 25.9 °F 30.01 in NNW 10.3 mph 11.5 mph 89% 0.00 in 0.00 W/m2
02:34 28.6 °F 25.8 °F 30.01 in NNW 6.9 mph 11.5 mph 89% 0.00 in 0.00 W/m2
02:36 28.5 °F 25.7 °F 30.01 in NNW 5.8 mph 10.3 mph 89% 0.00 in 0.00 W/m2
02:37 28.5 °F 25.7 °F 30.01 in NNW 8.1 mph 10.3 mph 89% 0.00 in 0.00 W/m2
02:38 28.5 °F 25.7 °F 30.01 in NW 6.9 mph 10.3 mph 89% 0.00 in 0.00 W/m2
02:39 28.5 °F 25.7 °F 30.01 in NNE 11.5 mph 11.5 mph 89% 0.00 in 0.00 W/m2
02:42 28.5 °F 25.7 °F 30.02 in NW 5.8 mph 11.5 mph 89% 0.00 in 0.00 W/m2
02:44 28.4 °F 25.6 °F 30.02 in NW 11.5 mph 11.5 mph 89% 0.00 in 0.00 W/m2
02:45 28.4 °F 25.6 °F 30.02 in NNW 4.6 mph 11.5 mph 89% 0.00 in 0.00 W/m2
02:47 28.4 °F 25.6 °F 30.02 in NW 5.8 mph 6.9 mph 89% 0.00 in 0.00 W/m2
02:48 28.4 °F 25.6 °F 30.02 in NNW 5.8 mph 6.9 mph 89% 0.00 in 0.00 W/m2
02:49 28.3 °F 25.5 °F 30.02 in NW 8.1 mph 13.8 mph 89% 0.00 in 0.00 W/m2
02:50 28.3 °F 25.5 °F 30.02 in NW 8.1 mph 13.8 mph 89% 0.00 in 0.00 W/m2
02:51 28.3 °F 25.5 °F 30.02 in NW 6.9 mph 6.9 mph 89% 0.00 in 0.00 W/m2
02:52 28.3 °F 25.5 °F 30.02 in NW 5.8 mph 11.5 mph 89% 0.00 in 0.00 W/m2
02:53 28.3 °F 25.5 °F 30.02 in NW 6.9 mph 11.5 mph 89% 0.00 in 0.00 W/m2
02:54 28.3 °F 25.5 °F 30.02 in NNW 8.1 mph 11.5 mph 89% 0.00 in 0.00 W/m2
02:55 28.2 °F 25.4 °F 30.02 in NW 8.1 mph 11.5 mph 89% 0.00 in 0.00 W/m2
02:57 28.2 °F 25.4 °F 30.02 in NW 5.8 mph 8.1 mph 89% 0.00 in 0.00 W/m2
02:59 28.2 °F 25.4 °F 30.02 in NNW 3.4 mph 9.2 mph 89% 0.00 in 0.00 W/m2
03:00 28.1 °F 25.3 °F 30.02 in NW 10.3 mph 10.3 mph 89% 0.00 in 0.00 W/m2
03:01 28.1 °F 25.3 °F 30.02 in NNW 10.3 mph 10.3 mph 89% 0.00 in 0.00 W/m2
03:04 28.1 °F 25.3 °F 30.02 in NNW 10.3 mph 10.3 mph 89% 0.00 in 0.00 W/m2
03:05 28.0 °F 25.2 °F 30.02 in NW 5.8 mph 11.5 mph 89% 0.00 in 0.00 W/m2
03:06 28.0 °F 25.2 °F 30.02 in NW 4.6 mph 11.5 mph 89% 0.00 in 0.00 W/m2
03:07 28.0 °F 25.2 °F 30.02 in NNW 5.8 mph 9.2 mph 89% 0.00 in 0.00 W/m2
03:09 28.0 °F 25.2 °F 30.02 in NW 5.8 mph 10.3 mph 89% 0.00 in 0.00 W/m2
03:11 27.9 °F 25.1 °F 30.02 in NNW 4.6 mph 6.9 mph 89% 0.00 in 0.00 W/m2
03:12 27.9 °F 25.1 °F 30.02 in NNW 9.2 mph 10.3 mph 89% 0.00 in 0.00 W/m2
03:13 27.9 °F 25.1 °F 30.02 in NW 5.8 mph 10.3 mph 89% 0.00 in 0.00 W/m2
03:14 27.9 °F 25.1 °F 30.02 in NW 4.6 mph 10.3 mph 89% 0.00 in 0.00 W/m2
03:17 27.8 °F 25.0 °F 30.02 in NW 5.8 mph 11.5 mph 89% 0.00 in 0.00 W/m2
03:18 27.8 °F 25.0 °F 30.02 in North 5.8 mph 11.5 mph 89% 0.00 in 0.00 W/m2
03:19 27.8 °F 25.0 °F 30.02 in West 8.1 mph 11.5 mph 89% 0.00 in 0.00 W/m2
03:20 27.8 °F 25.0 °F 30.02 in WNW 5.8 mph 11.5 mph 89% 0.00 in 0.00 W/m2
03:24 27.8 °F 25.0 °F 30.02 in NNW 8.1 mph 9.2 mph 89% 0.00 in 0.00 W/m2
03:25 27.7 °F 24.9 °F 30.03 in NW 8.1 mph 11.5 mph 89% 0.00 in 0.00 W/m2
03:27 27.7 °F 24.9 °F 30.03 in NNW 12.6 mph 14.9 mph 89% 0.00 in 0.00 W/m2
03:29 27.7 °F 24.9 °F 30.03 in NNW 8.1 mph 14.9 mph 89% 0.00 in 0.00 W/m2
03:30 27.7 °F 24.9 °F 30.03 in NW 5.8 mph 14.9 mph 89% 0.00 in 0.00 W/m2
03:31 27.6 °F 24.8 °F 30.03 in NW 6.9 mph 8.1 mph 89% 0.00 in 0.00 W/m2
03:32 27.6 °F 24.8 °F 30.03 in NNW 5.8 mph 8.1 mph 89% 0.00 in 0.00 W/m2
03:35 27.6 °F 24.8 °F 30.03 in North 9.2 mph 10.3 mph 89% 0.00 in 0.00 W/m2
03:36 27.6 °F 24.8 °F 30.03 in NNW 10.3 mph 11.5 mph 89% 0.00 in 0.00 W/m2
03:37 27.6 °F 24.8 °F 30.03 in NW 8.1 mph 11.5 mph 89% 0.00 in 0.00 W/m2
03:38 27.6 °F 24.8 °F 30.03 in NNW 3.4 mph 11.5 mph 89% 0.00 in 0.00 W/m2
03:41 27.5 °F 24.7 °F 30.03 in WNW 6.9 mph 9.2 mph 89% 0.00 in 0.00 W/m2
03:42 27.5 °F 24.7 °F 30.03 in NW 5.8 mph 9.2 mph 89% 0.00 in 0.00 W/m2
03:43 27.5 °F 24.7 °F 30.03 in NW 4.6 mph 9.2 mph 89% 0.00 in 0.00 W/m2
03:44 27.5 °F 24.7 °F 30.03 in NNW 8.1 mph 9.2 mph 89% 0.00 in 0.00 W/m2
03:47 27.5 °F 24.7 °F 30.03 in NNW 4.6 mph 5.8 mph 89% 0.00 in 0.00 W/m2
03:49 27.5 °F 24.7 °F 30.03 in NW 4.6 mph 9.2 mph 89% 0.00 in 0.00 W/m2
03:50 27.4 °F 24.6 °F 30.03 in NW 5.8 mph 9.2 mph 89% 0.00 in 0.00 W/m2
03:52 27.4 °F 24.6 °F 30.03 in WNW 10.3 mph 10.3 mph 89% 0.00 in 0.00 W/m2
03:54 27.4 °F 24.6 °F 30.03 in NNW 3.4 mph 10.3 mph 89% 0.00 in 0.00 W/m2
03:55 27.4 °F 24.6 °F 30.03 in NW 4.6 mph 10.3 mph 89% 0.00 in 0.00 W/m2
03:56 27.4 °F 24.6 °F 30.03 in NNW 5.8 mph 10.3 mph 89% 0.00 in 0.00 W/m2
03:57 27.3 °F 24.5 °F 30.03 in NW 8.1 mph 9.2 mph 89% 0.00 in 0.00 W/m2
04:00 27.3 °F 24.5 °F 30.04 in NNW 9.2 mph 10.3 mph 89% 0.00 in 0.00 W/m2
04:01 27.3 °F 24.5 °F 30.04 in NNW 10.3 mph 10.3 mph 89% 0.00 in 0.00 W/m2
04:02 27.3 °F 24.5 °F 30.04 in NW 6.9 mph 10.3 mph 89% 0.00 in 0.00 W/m2
04:03 27.3 °F 24.5 °F 30.04 in NW 4.6 mph 10.3 mph 89% 0.00 in 0.00 W/m2
04:05 27.2 °F 24.4 °F 30.04 in North 5.8 mph 10.3 mph 89% 0.00 in 0.00 W/m2
04:06 27.2 °F 24.4 °F 30.04 in NNW 4.6 mph 10.3 mph 89% 0.00 in 0.00 W/m2
04:07 27.2 °F 24.4 °F 30.04 in NNW 9.2 mph 11.5 mph 89% 0.00 in 0.00 W/m2
04:08 27.2 °F 24.4 °F 30.04 in NW 5.8 mph 11.5 mph 89% 0.00 in 0.00 W/m2
04:09 27.2 °F 24.4 °F 30.04 in North 6.9 mph 11.5 mph 89% 0.00 in 0.00 W/m2
04:11 27.2 °F 24.4 °F 30.04 in NW 6.9 mph 11.5 mph 89% 0.00 in 0.00 W/m2
04:13 27.1 °F 24.3 °F 30.04 in NNW 4.6 mph 10.3 mph 89% 0.00 in 0.00 W/m2
04:14 27.1 °F 24.3 °F 30.04 in NW 11.5 mph 11.5 mph 89% 0.00 in 0.00 W/m2
04:16 27.1 °F 24.3 °F 30.04 in NW 5.8 mph 11.5 mph 89% 0.00 in 0.00 W/m2
04:18 27.1 °F 24.3 °F 30.04 in NW 8.1 mph 11.5 mph 89% 0.00 in 0.00 W/m2
04:20 27.1 °F 24.3 °F 30.04 in NNW 6.9 mph 11.5 mph 89% 0.00 in 0.00 W/m2
04:21 27.0 °F 24.2 °F 30.04 in NW 9.2 mph 9.2 mph 89% 0.00 in 0.00 W/m2
04:24 27.0 °F 24.2 °F 30.04 in NW 3.4 mph 9.2 mph 89% 0.00 in 0.00 W/m2
04:25 27.0 °F 24.2 °F 30.04 in NNW 5.8 mph 9.2 mph 89% 0.00 in 0.00 W/m2
04:26 26.9 °F 24.1 °F 30.04 in NW 5.8 mph 8.1 mph 89% 0.00 in 0.00 W/m2
04:27 27.0 °F 24.2 °F 30.04 in NW 4.6 mph 8.1 mph 89% 0.00 in 0.00 W/m2
04:29 26.9 °F 24.1 °F 30.04 in NW 4.6 mph 8.1 mph 89% 0.00 in 0.00 W/m2
04:30 26.9 °F 24.1 °F 30.04 in NW 4.6 mph 8.1 mph 89% 0.00 in 0.00 W/m2
04:31 26.9 °F 24.1 °F 30.04 in NNW 5.8 mph 5.8 mph 89% 0.00 in 0.00 W/m2
04:32 26.9 °F 24.1 °F 30.04 in NW 5.8 mph 11.5 mph 89% 0.00 in 0.00 W/m2
04:34 26.8 °F 24.0 °F 30.05 in NNW 3.4 mph 11.5 mph 89% 0.00 in 0.00 W/m2
04:35 26.8 °F 24.0 °F 30.04 in NNW 8.1 mph 11.5 mph 89% 0.00 in 0.00 W/m2
04:36 26.8 °F 24.0 °F 30.04 in NNW 3.4 mph 11.5 mph 89% 0.00 in 0.00 W/m2
04:37 26.7 °F 23.9 °F 30.04 in NW 4.6 mph 5.8 mph 89% 0.00 in 0.00 W/m2
04:40 26.7 °F 23.9 °F 30.05 in NW 6.9 mph 8.1 mph 89% 0.00 in 0.00 W/m2
04:41 26.7 °F 23.9 °F 30.05 in NW 3.4 mph 8.1 mph 89% 0.00 in 0.00 W/m2
04:43 26.7 °F 23.9 °F 30.05 in NW 4.6 mph 8.1 mph 89% 0.00 in 0.00 W/m2
04:45 26.6 °F 23.8 °F 30.05 in NW 3.4 mph 8.1 mph 89% 0.00 in 0.00 W/m2
04:46 26.6 °F 23.8 °F 30.05 in NW 4.6 mph 4.6 mph 89% 0.00 in 0.00 W/m2
04:48 26.6 °F 23.8 °F 30.05 in NW 3.4 mph 6.9 mph 89% 0.00 in 0.00 W/m2
04:49 26.6 °F 23.8 °F 30.05 in NNW 2.3 mph 6.9 mph 89% 0.00 in 0.00 W/m2
04:51 26.5 °F 23.7 °F 30.05 in NW 3.4 mph 4.6 mph 89% 0.00 in 0.00 W/m2
04:54 26.5 °F 23.7 °F 30.05 in NW 5.8 mph 8.1 mph 89% 0.00 in 0.00 W/m2
04:57 26.4 °F 23.6 °F 30.05 in NW 4.6 mph 9.2 mph 89% 0.00 in 0.00 W/m2
04:59 26.4 °F 23.6 °F 30.05 in NW 3.4 mph 9.2 mph 89% 0.00 in 0.00 W/m2
05:00 26.4 °F 23.6 °F 30.05 in NNW 5.8 mph 9.2 mph 89% 0.00 in 0.00 W/m2
05:01 26.4 °F 23.6 °F 30.05 in NNW 4.6 mph 9.2 mph 89% 0.00 in 0.00 W/m2
05:02 26.3 °F 23.5 °F 30.05 in NW 6.9 mph 8.1 mph 89% 0.00 in 0.00 W/m2
05:04 26.3 °F 23.5 °F 30.05 in NNW 5.8 mph 8.1 mph 89% 0.00 in 0.00 W/m2
05:06 26.3 °F 23.5 °F 30.05 in NW 5.8 mph 8.1 mph 89% 0.00 in 0.00 W/m2
05:07 26.2 °F 23.4 °F 30.05 in NW 4.6 mph 6.9 mph 89% 0.00 in 0.00 W/m2
05:09 26.2 °F 23.4 °F 30.05 in NW 6.9 mph 6.9 mph 89% 0.00 in 0.00 W/m2
05:10 26.2 °F 23.4 °F 30.05 in NW 4.6 mph 6.9 mph 89% 0.00 in 0.00 W/m2
05:12 26.2 °F 23.4 °F 30.05 in NW 10.3 mph 10.3 mph 89% 0.00 in 0.00 W/m2
05:13 26.2 °F 23.4 °F 30.05 in NNW 6.9 mph 10.3 mph 89% 0.00 in 0.00 W/m2
05:14 26.2 °F 23.4 °F 30.05 in NW 5.8 mph 10.3 mph 89% 0.00 in 0.00 W/m2
05:16 26.2 °F 23.4 °F 30.05 in NW 4.6 mph 10.3 mph 89% 0.00 in 0.00 W/m2
05:18 26.2 °F 23.4 °F 30.06 in NW 8.1 mph 9.2 mph 89% 0.00 in 0.00 W/m2
05:19 26.2 °F 23.4 °F 30.06 in NNW 8.1 mph 9.2 mph 89% 0.00 in 0.00 W/m2
05:20 26.2 °F 23.4 °F 30.06 in NW 8.1 mph 9.2 mph 89% 0.00 in 0.00 W/m2
05:22 26.2 °F 23.7 °F 30.06 in NNW 4.6 mph 6.9 mph 90% 0.00 in 0.00 W/m2
05:24 26.2 °F 23.7 °F 30.06 in WNW 9.2 mph 9.2 mph 90% 0.00 in 0.00 W/m2
05:25 26.2 °F 23.7 °F 30.06 in NW 4.6 mph 9.2 mph 90% 0.00 in 0.00 W/m2
05:26 26.2 °F 23.7 °F 30.06 in WNW 5.8 mph 9.2 mph 90% 0.00 in 0.00 W/m2
05:27 26.2 °F 23.7 °F 30.07 in WNW 8.1 mph 8.1 mph 90% 0.00 in 0.00 W/m2
05:29 26.2 °F 23.7 °F 30.07 in NW 4.6 mph 9.2 mph 90% 0.00 in 0.00 W/m2
05:30 26.1 °F 23.6 °F 30.07 in NNW 6.9 mph 9.2 mph 90% 0.00 in 0.00 W/m2
05:31 26.1 °F 23.6 °F 30.07 in NW 5.8 mph 9.2 mph 90% 0.00 in 0.00 W/m2
05:32 26.1 °F 23.6 °F 30.07 in NW 4.6 mph 9.2 mph 90% 0.00 in 0.00 W/m2
05:33 26.1 °F 23.6 °F 30.07 in WNW 8.1 mph 9.2 mph 90% 0.00 in 0.00 W/m2
05:34 26.1 °F 23.6 °F 30.07 in NW 6.9 mph 9.2 mph 90% 0.00 in 0.00 W/m2
05:36 26.1 °F 23.6 °F 30.07 in NW 5.8 mph 6.9 mph 90% 0.00 in 0.00 W/m2
05:37 26.1 °F 23.6 °F 30.07 in WNW 6.9 mph 10.3 mph 90% 0.00 in 0.00 W/m2
05:38 26.1 °F 23.6 °F 30.07 in WNW 3.4 mph 10.3 mph 90% 0.00 in 0.00 W/m2
05:39 26.0 °F 23.5 °F 30.07 in WNW 8.1 mph 10.3 mph 90% 0.00 in 0.00 W/m2
05:41 26.0 °F 23.5 °F 30.08 in NW 4.6 mph 10.3 mph 90% 0.00 in 0.00 W/m2
05:43 26.0 °F 23.5 °F 30.08 in WNW 6.9 mph 6.9 mph 90% 0.00 in 0.00 W/m2
05:45 26.0 °F 23.5 °F 30.08 in WNW 9.2 mph 9.2 mph 90% 0.00 in 0.00 W/m2
05:46 26.0 °F 23.5 °F 30.08 in NW 4.6 mph 9.2 mph 90% 0.00 in 0.00 W/m2
05:47 26.0 °F 23.5 °F 30.08 in NW 4.6 mph 9.2 mph 90% 0.00 in 0.00 W/m2
05:48 25.9 °F 23.4 °F 30.08 in NW 6.9 mph 9.2 mph 90% 0.00 in 0.00 W/m2
05:50 25.9 °F 23.4 °F 30.08 in WNW 8.1 mph 9.2 mph 90% 0.00 in 0.00 W/m2
05:52 25.8 °F 23.3 °F 30.08 in NW 5.8 mph 9.2 mph 90% 0.00 in 0.00 W/m2
05:54 25.8 °F 23.3 °F 30.08 in NW 6.9 mph 9.2 mph 90% 0.00 in 0.00 W/m2
05:55 25.8 °F 23.3 °F 30.08 in WNW 5.8 mph 9.2 mph 90% 0.00 in 0.00 W/m2
05:56 25.7 °F 23.2 °F 30.08 in WNW 6.9 mph 6.9 mph 90% 0.00 in 0.00 W/m2
05:57 25.7 °F 23.2 °F 30.08 in WNW 5.8 mph 10.3 mph 90% 0.00 in 0.00 W/m2
05:59 25.7 °F 22.9 °F 30.08 in WNW 4.6 mph 10.3 mph 89% 0.00 in 0.00 W/m2
06:00 25.7 °F 23.2 °F 30.08 in NW 6.9 mph 10.3 mph 90% 0.00 in 0.00 W/m2
06:01 25.7 °F 22.9 °F 30.08 in WNW 6.9 mph 10.3 mph 89% 0.00 in 0.00 W/m2
06:02 25.6 °F 22.8 °F 30.08 in NW 5.8 mph 6.9 mph 89% 0.00 in 0.00 W/m2
06:03 25.6 °F 22.8 °F 30.08 in NW 5.8 mph 6.9 mph 89% 0.00 in 0.00 W/m2
06:04 25.6 °F 22.8 °F 30.09 in NW 4.6 mph 8.1 mph 89% 0.00 in 0.00 W/m2
06:05 25.5 °F 23.0 °F 30.08 in WNW 5.8 mph 9.2 mph 90% 0.00 in 0.00 W/m2
06:06 25.5 °F 23.0 °F 30.09 in WNW 8.1 mph 9.2 mph 90% 0.00 in 0.00 W/m2
06:08 25.5 °F 23.0 °F 30.09 in WNW 5.8 mph 9.2 mph 90% 0.00 in 0.00 W/m2
06:09 25.5 °F 23.0 °F 30.09 in NW 4.6 mph 9.2 mph 90% 0.00 in 0.00 W/m2
06:11 25.4 °F 22.9 °F 30.09 in WNW 5.8 mph 8.1 mph 90% 0.00 in 0.00 W/m2
06:12 25.4 °F 22.9 °F 30.09 in NW 8.1 mph 8.1 mph 90% 0.00 in 0.00 W/m2
06:13 25.4 °F 22.9 °F 30.09 in WNW 9.2 mph 9.2 mph 90% 0.00 in 0.00 W/m2
06:14 25.4 °F 22.9 °F 30.09 in WNW 8.1 mph 9.2 mph 90% 0.00 in 0.00 W/m2
06:16 25.3 °F 22.8 °F 30.09 in WNW 4.6 mph 6.9 mph 90% 0.00 in 0.00 W/m2
06:17 25.3 °F 22.8 °F 30.09 in WNW 5.8 mph 6.9 mph 90% 0.00 in 0.00 W/m2
06:18 25.3 °F 22.8 °F 30.09 in WNW 6.9 mph 9.2 mph 90% 0.00 in 0.00 W/m2
06:19 25.3 °F 22.8 °F 30.09 in NNW 8.1 mph 9.2 mph 90% 0.00 in 0.00 W/m2
06:23 25.2 °F 22.7 °F 30.09 in NW 9.2 mph 9.2 mph 90% 0.00 in 5.00 W/m2
06:24 25.2 °F 22.7 °F 30.09 in WNW 9.2 mph 9.2 mph 90% 0.00 in 5.00 W/m2
06:26 25.2 °F 22.7 °F 30.10 in NW 5.8 mph 9.2 mph 90% 0.00 in 5.00 W/m2
06:28 25.2 °F 22.7 °F 30.10 in WNW 6.9 mph 10.3 mph 90% 0.00 in 7.00 W/m2
06:29 25.2 °F 22.7 °F 30.10 in WNW 5.8 mph 10.3 mph 90% 0.00 in 9.00 W/m2
06:31 25.2 °F 22.7 °F 30.10 in NW 4.6 mph 5.8 mph 90% 0.00 in 16.00 W/m2
06:32 25.2 °F 22.7 °F 30.10 in NW 6.9 mph 8.1 mph 90% 0.00 in 16.00 W/m2
06:34 25.2 °F 22.7 °F 30.10 in WNW 3.4 mph 9.2 mph 90% 0.00 in 21.00 W/m2
06:35 25.3 °F 22.8 °F 30.10 in NNW 6.9 mph 9.2 mph 90% 0.00 in 21.00 W/m2
06:38 25.3 °F 22.8 °F 30.10 in NNW 8.1 mph 9.2 mph 90% 0.00 in 18.00 W/m2
06:39 25.3 °F 22.8 °F 30.10 in NW 5.8 mph 9.2 mph 90% 0.00 in 18.00 W/m2
06:40 25.3 °F 22.8 °F 30.10 in NW 4.6 mph 9.2 mph 90% 0.00 in 19.00 W/m2
06:41 25.3 °F 22.8 °F 30.10 in NW 4.6 mph 5.8 mph 90% 0.00 in 16.00 W/m2
06:45 25.4 °F 22.9 °F 30.10 in NW 8.1 mph 8.1 mph 90% 0.00 in 35.00 W/m2
06:46 25.4 °F 22.9 °F 30.10 in NW 5.8 mph 5.8 mph 90% 0.00 in 25.00 W/m2
06:50 25.5 °F 23.0 °F 30.11 in NW 5.8 mph 9.2 mph 90% 0.00 in 32.00 W/m2
06:51 25.5 °F 23.0 °F 30.10 in NNW 6.9 mph 6.9 mph 90% 0.00 in 25.00 W/m2
06:52 25.6 °F 23.1 °F 30.11 in NW 6.9 mph 6.9 mph 90% 0.00 in 33.00 W/m2
06:54 25.6 °F 23.1 °F 30.11 in NNW 8.1 mph 10.3 mph 90% 0.00 in 39.00 W/m2
06:56 25.6 °F 23.1 °F 30.11 in NW 8.1 mph 8.1 mph 90% 0.00 in 33.00 W/m2
06:57 25.7 °F 23.2 °F 30.11 in NW 4.6 mph 8.1 mph 90% 0.00 in 33.00 W/m2
06:59 25.7 °F 23.2 °F 30.11 in NW 5.8 mph 9.2 mph 90% 0.00 in 70.00 W/m2
07:00 25.7 °F 23.2 °F 30.11 in NNW 4.6 mph 9.2 mph 90% 0.00 in 93.00 W/m2
07:01 25.8 °F 23.3 °F 30.11 in NW 9.2 mph 9.2 mph 90% 0.00 in 104.00 W/m2
07:02 25.8 °F 23.3 °F 30.11 in NW 4.6 mph 9.2 mph 90% 0.00 in 109.00 W/m2
07:04 25.9 °F 23.4 °F 30.11 in NW 3.4 mph 9.2 mph 90% 0.00 in 123.00 W/m2
07:05 25.9 °F 23.4 °F 30.11 in NNW 8.1 mph 9.2 mph 90% 0.00 in 127.00 W/m2
07:06 26.0 °F 23.5 °F 30.11 in NW 5.8 mph 8.1 mph 90% 0.00 in 128.00 W/m2
07:07 26.0 °F 23.5 °F 30.12 in NNW 3.4 mph 8.1 mph 90% 0.00 in 130.00 W/m2
07:09 26.0 °F 23.5 °F 30.12 in NW 5.8 mph 8.1 mph 90% 0.00 in 135.00 W/m2
07:11 26.1 °F 23.6 °F 30.12 in NNW 4.6 mph 9.2 mph 90% 0.00 in 139.00 W/m2
07:12 26.2 °F 23.7 °F 30.12 in NNW 8.1 mph 9.2 mph 90% 0.00 in 141.00 W/m2
07:13 26.2 °F 23.7 °F 30.12 in NW 3.4 mph 10.3 mph 90% 0.00 in 144.00 W/m2
07:14 26.3 °F 23.8 °F 30.12 in NNW 5.8 mph 10.3 mph 90% 0.00 in 148.00 W/m2
07:15 26.3 °F 23.8 °F 30.12 in NNW 6.9 mph 10.3 mph 90% 0.00 in 151.00 W/m2
07:16 26.3 °F 23.8 °F 30.12 in NW 5.8 mph 9.2 mph 90% 0.00 in 160.00 W/m2
07:17 26.4 °F 23.9 °F 30.12 in NW 4.6 mph 9.2 mph 90% 0.00 in 160.00 W/m2
07:19 26.5 °F 24.0 °F 30.12 in NNW 6.9 mph 9.2 mph 90% 0.00 in 169.00 W/m2
07:20 26.5 °F 24.0 °F 30.12 in NW 5.8 mph 9.2 mph 90% 0.00 in 172.00 W/m2
07:21 26.5 °F 24.0 °F 30.12 in NW 8.1 mph 8.1 mph 90% 0.00 in 178.00 W/m2
07:22 26.6 °F 24.1 °F 30.12 in NW 8.1 mph 11.5 mph 90% 0.00 in 179.00 W/m2
07:25 26.8 °F 24.3 °F 30.12 in NW 8.1 mph 11.5 mph 90% 0.00 in 190.00 W/m2
07:27 27.0 °F 24.2 °F 30.12 in NNW 3.4 mph 8.1 mph 89% 0.00 in 200.00 W/m2
07:30 27.1 °F 24.3 °F 30.12 in NW 5.8 mph 9.2 mph 89% 0.00 in 213.00 W/m2
07:31 27.2 °F 24.4 °F 30.12 in NNW 6.9 mph 6.9 mph 89% 0.00 in 220.00 W/m2
07:33 27.3 °F 24.5 °F 30.13 in NW 3.4 mph 6.9 mph 89% 0.00 in 225.00 W/m2
07:34 27.4 °F 24.6 °F 30.13 in NW 2.3 mph 6.9 mph 89% 0.00 in 243.00 W/m2
07:36 27.5 °F 24.7 °F 30.13 in NW 3.4 mph 8.1 mph 89% 0.00 in 250.00 W/m2
07:37 27.5 °F 24.4 °F 30.13 in NW 9.2 mph 9.2 mph 88% 0.00 in 253.00 W/m2
07:38 27.6 °F 24.8 °F 30.13 in NNW 4.6 mph 9.2 mph 89% 0.00 in 276.00 W/m2
07:39 27.6 °F 24.8 °F 30.13 in NNW 5.8 mph 9.2 mph 89% 0.00 in 285.00 W/m2
07:42 27.7 °F 24.6 °F 30.13 in NNW 9.2 mph 9.2 mph 88% 0.00 in 320.00 W/m2
07:43 27.8 °F 24.7 °F 30.13 in NW 9.2 mph 9.2 mph 88% 0.00 in 338.00 W/m2
07:44 27.8 °F 24.7 °F 30.13 in NNW 6.9 mph 11.5 mph 88% 0.00 in 346.00 W/m2
07:45 27.8 °F 24.7 °F 30.13 in NNW 5.8 mph 11.5 mph 88% 0.00 in 350.00 W/m2
07:47 27.9 °F 24.8 °F 30.13 in NNW 8.1 mph 8.1 mph 88% 0.00 in 357.00 W/m2
07:49 28.0 °F 24.9 °F 30.13 in North 6.9 mph 12.6 mph 88% 0.00 in 311.00 W/m2
07:50 28.0 °F 24.9 °F 30.13 in NNW 10.3 mph 12.6 mph 88% 0.00 in 295.00 W/m2
07:51 28.1 °F 25.0 °F 30.13 in NW 9.2 mph 12.6 mph 88% 0.00 in 281.00 W/m2
07:53 28.2 °F 25.1 °F 30.13 in NNW 6.9 mph 13.8 mph 88% 0.00 in 388.00 W/m2
07:55 28.3 °F 25.2 °F 30.13 in NW 5.8 mph 13.8 mph 88% 0.00 in 352.00 W/m2
07:56 28.3 °F 25.2 °F 30.13 in WNW 9.2 mph 13.8 mph 88% 0.00 in 318.00 W/m2
08:01 28.5 °F 25.1 °F 30.13 in NNW 8.1 mph 11.5 mph 87% 0.00 in 462.00 W/m2
08:02 28.6 °F 25.2 °F 30.13 in WNW 9.2 mph 12.6 mph 87% 0.00 in 485.00 W/m2
08:06 28.7 °F 25.0 °F 30.13 in NNW 11.5 mph 11.5 mph 86% 0.00 in 527.00 W/m2
08:07 28.7 °F 25.0 °F 30.13 in NNW 6.9 mph 11.5 mph 86% 0.00 in 529.00 W/m2
08:08 28.8 °F 25.1 °F 30.13 in NNW 2.3 mph 12.6 mph 86% 0.00 in 534.00 W/m2
08:11 28.8 °F 24.9 °F 30.14 in NW 13.8 mph 13.8 mph 85% 0.00 in 552.00 W/m2
08:12 28.8 °F 24.9 °F 30.14 in NNW 5.8 mph 16.1 mph 85% 0.00 in 557.00 W/m2
08:13 28.8 °F 24.9 °F 30.14 in North 11.5 mph 16.1 mph 85% 0.00 in 561.00 W/m2
08:14 28.9 °F 25.0 °F 30.14 in North 8.1 mph 16.1 mph 85% 0.00 in 568.00 W/m2
08:17 29.0 °F 25.1 °F 30.14 in NNW 9.2 mph 12.6 mph 85% 0.00 in 580.00 W/m2
08:18 29.1 °F 25.2 °F 30.14 in WNW 9.2 mph 12.6 mph 85% 0.00 in 580.00 W/m2
08:19 29.2 °F 25.3 °F 30.14 in NW 11.5 mph 13.8 mph 85% 0.00 in 580.00 W/m2
08:20 29.2 °F 25.3 °F 30.14 in WNW 10.3 mph 13.8 mph 85% 0.00 in 582.00 W/m2
08:23 29.5 °F 25.6 °F 30.14 in NNW 12.6 mph 12.6 mph 85% 0.00 in 615.00 W/m2
08:24 29.6 °F 25.6 °F 30.14 in NW 8.1 mph 12.6 mph 85% 0.00 in 615.00 W/m2
08:25 29.7 °F 25.5 °F 30.14 in NW 12.6 mph 12.6 mph 84% 0.00 in 624.00 W/m2
08:26 29.7 °F 25.5 °F 30.14 in NW 10.3 mph 11.5 mph 84% 0.00 in 624.00 W/m2
08:28 29.6 °F 25.1 °F 30.14 in NNW 5.8 mph 13.8 mph 83% 0.00 in 615.00 W/m2
08:29 29.6 °F 25.1 °F 30.14 in NNW 4.6 mph 13.8 mph 83% 0.00 in 615.00 W/m2
08:30 29.7 °F 25.2 °F 30.14 in NW 8.1 mph 13.8 mph 83% 0.00 in 599.00 W/m2
08:31 29.7 °F 25.2 °F 30.14 in NW 5.8 mph 13.8 mph 83% 0.00 in 596.00 W/m2
08:33 29.6 °F 24.5 °F 30.14 in NNW 13.8 mph 13.8 mph 81% 0.00 in 661.00 W/m2
08:35 29.8 °F 25.3 °F 30.14 in NNW 6.9 mph 13.8 mph 83% 0.00 in 633.00 W/m2
08:36 29.9 °F 25.4 °F 30.14 in NW 10.3 mph 13.8 mph 83% 0.00 in 594.00 W/m2
08:37 29.9 °F 25.4 °F 30.14 in NNW 10.3 mph 10.3 mph 83% 0.00 in 601.00 W/m2
08:41 30.0 °F 24.9 °F 30.14 in NNW 5.8 mph 11.5 mph 81% 0.00 in 555.00 W/m2
08:42 30.0 °F 24.9 °F 30.15 in NW 9.2 mph 9.2 mph 81% 0.00 in 534.00 W/m2
08:46 30.2 °F 24.8 °F 30.15 in North 8.1 mph 10.3 mph 80% 0.00 in 527.00 W/m2
08:47 30.2 °F 24.8 °F 30.15 in NNW 10.3 mph 10.3 mph 80% 0.00 in 527.00 W/m2
08:52 30.5 °F 25.1 °F 30.15 in NNW 10.3 mph 11.5 mph 80% 0.00 in 508.00 W/m2
08:53 30.6 °F 24.9 °F 30.15 in NW 9.2 mph 11.5 mph 79% 0.00 in 504.00 W/m2
08:58 30.7 °F 25.0 °F 30.15 in NNW 11.5 mph 11.5 mph 79% 0.00 in 489.00 W/m2
09:00 30.8 °F 25.1 °F 30.15 in NNW 10.3 mph 14.9 mph 79% 0.00 in 496.00 W/m2
09:03 31.1 °F 25.0 °F 30.15 in NNW 12.6 mph 16.1 mph 78% 0.00 in 499.00 W/m2
09:04 31.2 °F 25.1 °F 30.15 in WNW 8.1 mph 16.1 mph 78% 0.00 in 506.00 W/m2
09:05 31.3 °F 25.2 °F 30.15 in WNW 6.9 mph 16.1 mph 78% 0.00 in 508.00 W/m2
09:06 31.4 °F 25.0 °F 30.15 in NW 10.3 mph 10.3 mph 77% 0.00 in 513.00 W/m2
09:07 31.5 °F 24.8 °F 30.15 in NW 5.8 mph 13.8 mph 76% 0.00 in 520.00 W/m2
09:08 31.4 °F 24.4 °F 30.15 in NNW 8.1 mph 13.8 mph 75% 0.00 in 526.00 W/m2
09:09 31.3 °F 24.3 °F 30.15 in North 8.1 mph 13.8 mph 75% 0.00 in 526.00 W/m2
09:10 31.2 °F 24.2 °F 30.15 in NNW 8.1 mph 13.8 mph 75% 0.00 in 526.00 W/m2
09:12 31.3 °F 24.3 °F 30.15 in NNW 10.3 mph 14.9 mph 75% 0.00 in 541.00 W/m2
09:14 31.6 °F 24.9 °F 30.16 in NNW 6.9 mph 14.9 mph 76% 0.00 in 543.00 W/m2
09:15 31.7 °F 25.3 °F 30.16 in NW 10.3 mph 14.9 mph 77% 0.00 in 550.00 W/m2
09:19 31.9 °F 25.2 °F 30.16 in WNW 9.2 mph 13.8 mph 76% 0.00 in 566.00 W/m2
09:20 32.0 °F 25.3 °F 30.16 in WNW 5.8 mph 13.8 mph 76% 0.00 in 571.00 W/m2
09:22 32.1 °F 25.7 °F 30.16 in NNW 8.1 mph 12.6 mph 77% 0.00 in 617.00 W/m2
09:24 32.2 °F 24.5 °F 30.16 in NNW 12.6 mph 14.9 mph 73% 0.00 in 640.00 W/m2
09:25 32.0 °F 24.0 °F 30.16 in NNW 11.5 mph 14.9 mph 72% 0.00 in 624.00 W/m2
09:26 32.0 °F 24.0 °F 30.16 in NW 5.8 mph 5.8 mph 72% 0.00 in 606.00 W/m2
09:27 32.0 °F 24.3 °F 30.16 in NW 6.9 mph 8.1 mph 73% 0.00 in 605.00 W/m2
09:28 32.0 °F 24.3 °F 30.16 in NNW 8.1 mph 10.3 mph 73% 0.00 in 612.00 W/m2
09:30 32.1 °F 24.4 °F 30.16 in NNW 10.3 mph 12.6 mph 73% 0.00 in 615.00 W/m2
09:31 32.0 °F 24.3 °F 30.16 in NNW 6.9 mph 12.6 mph 73% 0.00 in 615.00 W/m2
09:32 32.0 °F 24.0 °F 30.16 in NNW 6.9 mph 12.6 mph 72% 0.00 in 622.00 W/m2
09:33 31.9 °F 23.6 °F 30.16 in NW 10.3 mph 12.6 mph 71% 0.00 in 629.00 W/m2
09:35 32.1 °F 24.1 °F 30.16 in NW 4.6 mph 12.6 mph 72% 0.00 in 656.00 W/m2
09:36 32.4 °F 24.4 °F 30.17 in NNW 8.1 mph 8.1 mph 72% 0.00 in 675.00 W/m2
09:38 32.8 °F 25.4 °F 30.17 in NW 9.2 mph 14.9 mph 74% 0.00 in 693.00 W/m2
09:39 32.9 °F 25.5 °F 30.17 in NW 12.6 mph 14.9 mph 74% 0.00 in 687.00 W/m2
09:41 33.0 °F 25.6 °F 30.17 in NW 13.8 mph 14.9 mph 74% 0.00 in 700.00 W/m2
09:42 32.8 °F 24.5 °F 30.17 in WNW 11.5 mph 17.2 mph 71% 0.00 in 700.00 W/m2
09:44 32.6 °F 24.2 °F 30.17 in NW 13.8 mph 17.2 mph 71% 0.00 in 712.00 W/m2
09:46 32.4 °F 23.7 °F 30.17 in NW 9.2 mph 17.2 mph 70% 0.00 in 712.00 W/m2
09:47 32.3 °F 23.6 °F 30.17 in NNW 4.6 mph 12.6 mph 70% 0.00 in 684.00 W/m2
09:48 32.3 °F 23.6 °F 30.17 in NW 5.8 mph 12.6 mph 70% 0.00 in 694.00 W/m2
09:51 32.7 °F 25.0 °F 30.17 in NNW 11.5 mph 14.9 mph 73% 0.00 in 696.00 W/m2
09:52 32.9 °F 24.5 °F 30.17 in WNW 10.3 mph 12.6 mph 71% 0.00 in 712.00 W/m2
09:53 33.1 °F 25.7 °F 30.17 in NW 11.5 mph 12.6 mph 74% 0.00 in 719.00 W/m2
09:54 33.3 °F 25.3 °F 30.17 in North 11.5 mph 12.6 mph 72% 0.00 in 726.00 W/m2
09:56 33.2 °F 24.8 °F 30.17 in NNW 5.8 mph 12.6 mph 71% 0.00 in 751.00 W/m2
09:57 33.0 °F 24.3 °F 30.17 in NNW 8.1 mph 8.1 mph 70% 0.00 in 751.00 W/m2
09:58 33.0 °F 24.6 °F 30.17 in NNW 8.1 mph 12.6 mph 71% 0.00 in 752.00 W/m2
09:59 33.1 °F 25.1 °F 30.17 in NW 4.6 mph 12.6 mph 72% 0.00 in 752.00 W/m2
10:00 33.1 °F 24.7 °F 30.17 in NW 9.2 mph 12.6 mph 71% 0.00 in 752.00 W/m2
10:03 33.9 °F 26.5 °F 30.17 in North 8.1 mph 14.9 mph 74% 0.00 in 819.00 W/m2
10:04 33.9 °F 25.8 °F 30.17 in North 11.5 mph 14.9 mph 72% 0.00 in 847.00 W/m2
10:05 34.0 °F 25.9 °F 30.17 in NW 13.8 mph 14.9 mph 72% 0.00 in 831.00 W/m2
10:07 33.7 °F 25.3 °F 30.17 in NW 11.5 mph 16.1 mph 71% 0.00 in 831.00 W/m2
10:08 33.5 °F 24.4 °F 30.17 in NW 4.6 mph 16.1 mph 69% 0.00 in 770.00 W/m2
10:09 33.6 °F 25.2 °F 30.17 in NW 6.9 mph 16.1 mph 71% 0.00 in 777.00 W/m2
10:10 33.8 °F 25.4 °F 30.18 in NW 6.9 mph 16.1 mph 71% 0.00 in 800.00 W/m2
10:11 33.9 °F 26.2 °F 30.18 in North 10.3 mph 16.1 mph 73% 0.00 in 807.00 W/m2
10:13 33.7 °F 23.6 °F 30.18 in NW 8.1 mph 13.8 mph 66% 0.00 in 788.00 W/m2
10:14 33.4 °F 23.3 °F 30.18 in NNW 12.6 mph 14.9 mph 66% 0.00 in 788.00 W/m2
10:15 33.2 °F 22.7 °F 30.18 in NNW 11.5 mph 14.9 mph 65% 0.00 in 768.00 W/m2
10:17 33.1 °F 23.7 °F 30.18 in NW 10.3 mph 13.8 mph 68% 0.00 in 798.00 W/m2
10:18 33.3 °F 24.2 °F 30.18 in NNW 11.5 mph 13.8 mph 69% 0.00 in 796.00 W/m2
10:20 33.7 °F 25.3 °F 30.18 in NW 11.5 mph 13.8 mph 71% 0.00 in 847.00 W/m2
10:21 34.0 °F 25.3 °F 30.18 in NW 10.3 mph 17.2 mph 70% 0.00 in 865.00 W/m2
10:22 34.0 °F 24.2 °F 30.18 in NNW 5.8 mph 17.2 mph 67% 0.00 in 882.00 W/m2
10:23 34.0 °F 24.2 °F 30.18 in North 4.6 mph 17.2 mph 67% 0.00 in 882.00 W/m2
10:25 33.9 °F 24.1 °F 30.18 in NW 6.9 mph 17.2 mph 67% 0.00 in 812.00 W/m2
10:26 33.8 °F 24.0 °F 30.18 in NNW 9.2 mph 17.2 mph 67% 0.00 in 821.00 W/m2
10:27 34.1 °F 25.0 °F 30.18 in NNW 5.8 mph 11.5 mph 69% 0.00 in 824.00 W/m2
10:29 34.7 °F 26.3 °F 30.18 in NW 11.5 mph 16.1 mph 71% 0.00 in 824.00 W/m2
10:30 35.0 °F 26.9 °F 30.18 in NW 6.9 mph 16.1 mph 72% 0.00 in 824.00 W/m2
10:32 34.9 °F 24.3 °F 30.18 in NNW 10.3 mph 16.1 mph 65% 0.00 in 758.00 W/m2
10:33 35.1 °F 26.7 °F 30.18 in NNW 8.1 mph 16.1 mph 71% 0.00 in 758.00 W/m2
10:34 35.0 °F 26.6 °F 30.18 in NNW 9.2 mph 16.1 mph 71% 0.00 in 758.00 W/m2
10:36 34.8 °F 25.3 °F 30.18 in NW 6.9 mph 16.1 mph 68% 0.00 in 879.00 W/m2
10:38 34.2 °F 24.0 °F 30.19 in NW 11.5 mph 17.2 mph 66% 0.00 in 555.00 W/m2
10:39 34.1 °F 24.0 °F 30.18 in NNW 5.8 mph 17.2 mph 66% 0.00 in 555.00 W/m2
10:41 33.8 °F 22.5 °F 30.19 in NNW 5.8 mph 5.8 mph 63% 0.00 in 895.00 W/m2
10:44 34.6 °F 24.4 °F 30.19 in NNW 12.6 mph 16.1 mph 66% 0.00 in 860.00 W/m2
10:45 34.4 °F 22.7 °F 30.19 in NNW 4.6 mph 16.1 mph 62% 0.00 in 860.00 W/m2
10:48 34.7 °F 23.8 °F 30.19 in NW 6.9 mph 11.5 mph 64% 0.00 in 911.00 W/m2
10:49 35.3 °F 25.8 °F 30.19 in NNW 11.5 mph 12.6 mph 68% 0.00 in 974.00 W/m2
10:50 35.3 °F 25.1 °F 30.19 in NNW 6.9 mph 12.6 mph 66% 0.00 in 1002.00 W/m2
10:51 35.4 °F 24.5 °F 30.19 in WNW 10.3 mph 11.5 mph 64% 0.00 in 1002.00 W/m2
10:52 35.5 °F 25.3 °F 30.19 in WNW 9.2 mph 19.5 mph 66% 0.00 in 1002.00 W/m2
10:53 35.3 °F 23.2 °F 30.19 in WNW 17.2 mph 19.5 mph 61% 0.00 in 1002.00 W/m2
10:56 35.2 °F 23.9 °F 30.19 in WNW 12.6 mph 18.4 mph 63% 0.00 in 937.00 W/m2
10:57 35.2 °F 23.5 °F 30.19 in WNW 8.1 mph 18.4 mph 62% 0.00 in 981.00 W/m2
10:59 35.5 °F 24.9 °F 30.19 in NW 5.8 mph 18.4 mph 65% 0.00 in 993.00 W/m2
11:00 35.6 °F 25.0 °F 30.19 in NW 11.5 mph 18.4 mph 65% 0.00 in 993.00 W/m2
11:01 36.1 °F 25.1 °F 30.19 in NW 6.9 mph 13.8 mph 64% 0.00 in 1048.00 W/m2
11:02 36.1 °F 25.1 °F 30.19 in WNW 8.1 mph 13.8 mph 64% 0.00 in 1099.00 W/m2
11:03 36.3 °F 25.3 °F 30.19 in WNW 8.1 mph 13.8 mph 64% 0.00 in 1099.00 W/m2
11:05 36.8 °F 26.5 °F 30.19 in NW 10.3 mph 13.8 mph 66% 0.00 in 529.00 W/m2
11:07 36.2 °F 24.8 °F 30.19 in North 4.6 mph 6.9 mph 63% 0.00 in 250.00 W/m2
11:09 35.3 °F 23.6 °F 30.19 in NW 9.2 mph 12.6 mph 62% 0.00 in 197.00 W/m2
11:10 34.8 °F 22.7 °F 30.19 in WNW 10.3 mph 12.6 mph 61% 0.00 in 193.00 W/m2
11:12 34.1 °F 20.9 °F 30.19 in WNW 12.6 mph 17.2 mph 58% 0.00 in 214.00 W/m2
11:14 33.5 °F 20.7 °F 30.19 in WNW 10.3 mph 17.2 mph 59% 0.00 in 309.00 W/m2
11:15 33.4 °F 20.6 °F 30.19 in WNW 17.2 mph 17.2 mph 59% 0.00 in 309.00 W/m2
11:17 33.5 °F 21.1 °F 30.19 in WNW 12.6 mph 13.8 mph 60% 0.00 in 397.00 W/m2
11:18 33.6 °F 20.8 °F 30.19 in WNW 8.1 mph 13.8 mph 59% 0.00 in 264.00 W/m2
11:20 33.8 °F 21.4 °F 30.19 in NW 9.2 mph 13.8 mph 60% 0.00 in 264.00 W/m2
11:21 33.7 °F 21.7 °F 30.19 in NW 8.1 mph 9.2 mph 61% 0.00 in 260.00 W/m2
11:23 33.4 °F 21.0 °F 30.19 in WNW 17.2 mph 17.2 mph 60% 0.00 in 306.00 W/m2
11:24 33.4 °F 20.6 °F 30.19 in NW 18.4 mph 24.1 mph 59% 0.00 in 274.00 W/m2
11:26 33.5 °F 20.3 °F 30.19 in NW 10.3 mph 10.3 mph 58% 0.00 in 302.00 W/m2
11:27 34.1 °F 22.1 °F 30.19 in NNW 13.8 mph 18.4 mph 61% 0.00 in 302.00 W/m2
11:29 34.4 °F 22.0 °F 30.20 in NW 10.3 mph 18.4 mph 60% 0.00 in 302.00 W/m2
11:32 35.0 °F 22.9 °F 30.20 in NNW 10.3 mph 14.9 mph 61% 0.00 in 1118.00 W/m2
11:33 35.2 °F 23.1 °F 30.20 in NNW 9.2 mph 17.2 mph 61% 0.00 in 598.00 W/m2
11:34 35.3 °F 22.8 °F 30.20 in NNW 5.8 mph 17.2 mph 60% 0.00 in 591.00 W/m2
11:35 35.4 °F 23.3 °F 30.19 in NW 6.9 mph 17.2 mph 61% 0.00 in 591.00 W/m2
11:37 35.0 °F 21.7 °F 30.20 in NW 10.3 mph 19.5 mph 58% 0.00 in 287.00 W/m2
11:38 34.7 °F 21.9 °F 30.20 in WNW 18.4 mph 19.5 mph 59% 0.00 in 287.00 W/m2
11:39 34.7 °F 21.9 °F 30.20 in NW 10.3 mph 19.5 mph 59% 0.00 in 292.00 W/m2
11:40 34.6 °F 22.2 °F 30.20 in WNW 11.5 mph 19.5 mph 60% 0.00 in 295.00 W/m2
11:42 34.1 °F 21.3 °F 30.20 in NNW 10.3 mph 14.9 mph 59% 0.00 in 325.00 W/m2
11:45 34.1 °F 22.1 °F 30.20 in NW 5.8 mph 14.9 mph 61% 0.00 in 311.00 W/m2
11:46 34.3 °F 22.3 °F 30.20 in NW 9.2 mph 14.9 mph 61% 0.00 in 311.00 W/m2
11:47 34.7 °F 24.1 °F 30.20 in NNW 6.9 mph 10.3 mph 65% 0.00 in 311.00 W/m2
11:49 35.5 °F 22.6 °F 30.19 in NW 18.4 mph 18.4 mph 59% 0.00 in 972.00 W/m2
11:50 36.0 °F 23.9 °F 30.19 in WNW 10.3 mph 18.4 mph 61% 0.00 in 1109.00 W/m2
11:51 36.4 °F 24.6 °F 30.20 in WNW 9.2 mph 10.3 mph 62% 0.00 in 1129.00 W/m2
11:52 36.6 °F 22.8 °F 30.19 in WNW 8.1 mph 10.3 mph 57% 0.00 in 1109.00 W/m2
11:53 36.6 °F 23.2 °F 30.19 in NW 10.3 mph 10.3 mph 58% 0.00 in 373.00 W/m2
11:54 36.7 °F 24.1 °F 30.19 in NNW 6.9 mph 14.9 mph 60% 0.00 in 288.00 W/m2
11:56 36.3 °F 23.4 °F 30.20 in North 6.9 mph 6.9 mph 59% 0.00 in 213.00 W/m2
11:57 35.7 °F 22.0 °F 30.20 in NNW 9.2 mph 9.2 mph 57% 0.00 in 225.00 W/m2
11:59 35.4 °F 24.1 °F 30.19 in North 12.6 mph 12.6 mph 63% 0.00 in 1102.00 W/m2
12:00 35.9 °F 25.3 °F 30.19 in North 6.9 mph 13.8 mph 65% 0.00 in 1107.00 W/m2
12:02 36.0 °F 22.3 °F 30.19 in NNW 5.8 mph 14.9 mph 57% 0.00 in 1107.00 W/m2
12:03 35.9 °F 22.6 °F 30.19 in NW 6.9 mph 14.9 mph 58% 0.00 in 1107.00 W/m2
12:05 35.2 °F 18.9 °F 30.19 in NNW 12.6 mph 14.9 mph 51% 0.00 in 220.00 W/m2
12:08 34.4 °F 20.3 °F 30.19 in NW 6.9 mph 13.8 mph 56% 0.00 in 221.00 W/m2
12:09 34.6 °F 21.8 °F 30.19 in North 6.9 mph 13.8 mph 59% 0.00 in 1042.00 W/m2
12:10 35.1 °F 23.0 °F 30.19 in WNW 9.2 mph 13.8 mph 61% 0.00 in 1063.00 W/m2
12:11 35.5 °F 22.2 °F 30.19 in NNW 14.9 mph 18.4 mph 58% 0.00 in 1071.00 W/m2
12:14 36.8 °F 25.4 °F 30.19 in North 13.8 mph 18.4 mph 63% 0.00 in 1229.00 W/m2
12:16 37.4 °F 22.7 °F 30.19 in WNW 8.1 mph 18.4 mph 55% 0.00 in 1229.00 W/m2
12:17 37.1 °F 21.6 °F 30.19 in NNE 12.6 mph 12.6 mph 53% 0.00 in 1229.00 W/m2
12:18 37.1 °F 24.1 °F 30.19 in North 11.5 mph 14.9 mph 59% 0.00 in 443.00 W/m2
12:19 36.7 °F 22.1 °F 30.19 in North 18.4 mph 21.9 mph 55% 0.00 in 394.00 W/m2
12:21 36.0 °F 20.1 °F 30.19 in NW 13.8 mph 21.9 mph 52% 0.00 in 408.00 W/m2
12:23 35.3 °F 19.5 °F 30.19 in NW 19.5 mph 19.5 mph 52% 0.00 in 434.00 W/m2
12:25 35.1 °F 20.1 °F 30.19 in NW 8.1 mph 19.5 mph 54% 0.00 in 466.00 W/m2
12:26 35.1 °F 20.1 °F 30.19 in NNW 12.6 mph 12.6 mph 54% 0.00 in 497.00 W/m2
12:28 35.1 °F 19.7 °F 30.19 in NW 5.8 mph 14.9 mph 53% 0.00 in 519.00 W/m2
12:29 35.1 °F 20.1 °F 30.19 in WNW 13.8 mph 14.9 mph 54% 0.00 in 473.00 W/m2
12:30 35.3 °F 20.8 °F 30.19 in West 12.6 mph 20.7 mph 55% 0.00 in 462.00 W/m2
12:31 35.4 °F 20.9 °F 30.19 in WNW 12.6 mph 12.6 mph 55% 0.00 in 462.00 W/m2
12:34 35.2 °F 20.2 °F 30.19 in NW 13.8 mph 13.8 mph 54% 0.00 in 462.00 W/m2
12:35 35.2 °F 20.2 °F 30.19 in West 13.8 mph 17.2 mph 54% 0.00 in 355.00 W/m2
12:36 35.1 °F 20.1 °F 30.19 in NW 11.5 mph 11.5 mph 54% 0.00 in 362.00 W/m2
12:37 35.1 °F 21.0 °F 30.19 in NW 11.5 mph 14.9 mph 56% 0.00 in 327.00 W/m2
12:39 35.0 °F 20.0 °F 30.19 in NW 11.5 mph 17.2 mph 54% 0.00 in 288.00 W/m2
12:40 34.8 °F 19.0 °F 30.19 in NNW 13.8 mph 17.2 mph 52% 0.00 in 294.00 W/m2
12:41 34.8 °F 19.4 °F 30.19 in NW 11.5 mph 12.6 mph 53% 0.00 in 316.00 W/m2
12:43 35.0 °F 20.5 °F 30.19 in NNW 9.2 mph 14.9 mph 55% 0.00 in 316.00 W/m2
12:44 35.5 °F 22.2 °F 30.19 in NW 8.1 mph 14.9 mph 58% 0.00 in 316.00 W/m2
12:45 35.7 °F 22.4 °F 30.19 in WNW 13.8 mph 14.9 mph 58% 0.00 in 424.00 W/m2
12:46 35.9 °F 21.8 °F 30.19 in WNW 10.3 mph 19.5 mph 56% 0.00 in 424.00 W/m2
12:48 36.4 °F 21.8 °F 30.19 in WNW 8.1 mph 16.1 mph 55% 0.00 in 431.00 W/m2
12:49 36.3 °F 20.8 °F 30.19 in WNW 13.8 mph 16.1 mph 53% 0.00 in 436.00 W/m2
12:50 36.1 °F 19.7 °F 30.19 in NW 8.1 mph 16.1 mph 51% 0.00 in 439.00 W/m2
12:51 35.9 °F 20.5 °F 30.19 in WNW 6.9 mph 10.3 mph 53% 0.00 in 424.00 W/m2
12:52 35.6 °F 18.8 °F 30.19 in NW 4.6 mph 10.3 mph 50% 0.00 in 424.00 W/m2
12:54 35.5 °F 19.2 °F 30.19 in WNW 10.3 mph 11.5 mph 51% 0.00 in 366.00 W/m2
12:55 35.8 °F 21.2 °F 30.20 in NW 4.6 mph 13.8 mph 55% 0.00 in 350.00 W/m2
12:57 35.9 °F 21.3 °F 30.19 in NW 9.2 mph 10.3 mph 55% 0.00 in 346.00 W/m2
12:58 35.9 °F 20.9 °F 30.19 in NW 8.1 mph 11.5 mph 54% 0.00 in 343.00 W/m2
13:00 35.5 °F 19.2 °F 30.19 in NW 12.6 mph 12.6 mph 51% 0.00 in 315.00 W/m2
13:01 35.2 °F 18.9 °F 30.19 in NW 12.6 mph 12.6 mph 51% 0.00 in 304.00 W/m2
13:02 35.1 °F 19.7 °F 30.19 in NW 12.6 mph 14.9 mph 53% 0.00 in 297.00 W/m2
13:03 35.1 °F 19.3 °F 30.19 in NNW 9.2 mph 14.9 mph 52% 0.00 in 301.00 W/m2
13:04 35.1 °F 21.0 °F 30.19 in North 11.5 mph 14.9 mph 56% 0.00 in 301.00 W/m2
13:06 35.2 °F 20.2 °F 30.19 in NW 10.3 mph 16.1 mph 54% 0.00 in 336.00 W/m2
13:07 35.1 °F 19.3 °F 30.20 in NNW 6.9 mph 11.5 mph 52% 0.00 in 357.00 W/m2
13:08 35.1 °F 19.7 °F 30.19 in NNW 8.1 mph 11.5 mph 53% 0.00 in 387.00 W/m2
13:11 35.7 °F 20.7 °F 30.20 in NNW 8.1 mph 11.5 mph 54% 0.00 in 325.00 W/m2
13:12 35.8 °F 20.8 °F 30.20 in NW 5.8 mph 11.5 mph 54% 0.00 in 325.00 W/m2
13:13 35.8 °F 19.9 °F 30.20 in North 11.5 mph 11.5 mph 52% 0.00 in 322.00 W/m2
13:14 35.6 °F 19.3 °F 30.20 in NW 5.8 mph 11.5 mph 51% 0.00 in 336.00 W/m2
13:17 35.5 °F 20.1 °F 30.20 in NW 6.9 mph 13.8 mph 53% 0.00 in 415.00 W/m2
13:19 36.0 °F 21.0 °F 30.20 in NNW 9.2 mph 14.9 mph 54% 0.00 in 1250.00 W/m2
13:20 36.5 °F 21.0 °F 30.20 in NW 5.8 mph 14.9 mph 53% 0.00 in 1255.00 W/m2
13:24 37.8 °F 24.0 °F 30.20 in NNW 5.8 mph 10.3 mph 57% 0.00 in 1297.00 W/m2
13:25 37.8 °F 21.8 °F 30.20 in WNW 10.3 mph 11.5 mph 52% 0.00 in 383.00 W/m2
13:26 37.6 °F 20.7 °F 30.20 in NW 14.9 mph 18.4 mph 50% 0.00 in 374.00 W/m2
13:30 36.1 °F 17.8 °F 30.20 in WNW 8.1 mph 17.2 mph 47% 0.00 in 387.00 W/m2
13:31 35.8 °F 19.0 °F 30.20 in NW 23.0 mph 23.0 mph 50% 0.00 in 387.00 W/m2
13:32 35.7 °F 19.4 °F 30.20 in WNW 16.1 mph 23.0 mph 51% 0.00 in 329.00 W/m2
13:36 36.2 °F 22.0 °F 30.20 in NW 8.1 mph 8.1 mph 56% 0.00 in 360.00 W/m2
13:37 36.3 °F 21.3 °F 30.20 in NNW 9.2 mph 12.6 mph 54% 0.00 in 360.00 W/m2
13:38 36.3 °F 20.8 °F 30.20 in North 10.3 mph 12.6 mph 53% 0.00 in 360.00 W/m2
13:39 36.2 °F 20.3 °F 30.20 in NNW 5.8 mph 12.6 mph 52% 0.00 in 357.00 W/m2
13:41 36.3 °F 20.8 °F 30.20 in North 5.8 mph 9.2 mph 53% 0.00 in 346.00 W/m2
13:43 36.1 °F 20.6 °F 30.20 in North 9.2 mph 13.8 mph 53% 0.00 in 315.00 W/m2
13:44 36.0 °F 20.1 °F 30.20 in NNW 6.9 mph 14.9 mph 52% 0.00 in 281.00 W/m2
13:47 35.7 °F 21.1 °F 30.20 in NNW 11.5 mph 12.6 mph 55% 0.00 in 269.00 W/m2
13:48 35.6 °F 19.7 °F 30.20 in North 4.6 mph 12.6 mph 52% 0.00 in 276.00 W/m2
13:49 35.5 °F 19.2 °F 30.20 in NNW 5.8 mph 12.6 mph 51% 0.00 in 285.00 W/m2
13:53 35.3 °F 18.1 °F 30.20 in NW 10.3 mph 13.8 mph 49% 0.00 in 462.00 W/m2
13:54 35.5 °F 18.7 °F 30.20 in NNW 4.6 mph 13.8 mph 50% 0.00 in 462.00 W/m2
13:55 35.8 °F 20.4 °F 30.20 in NW 5.8 mph 13.8 mph 53% 0.00 in 378.00 W/m2
13:56 36.1 °F 20.6 °F 30.20 in NW 10.3 mph 11.5 mph 53% 0.00 in 378.00 W/m2
13:58 36.4 °F 19.1 °F 30.20 in NNW 12.6 mph 12.6 mph 49% 0.00 in 362.00 W/m2
13:59 36.4 °F 19.1 °F 30.20 in WNW 9.2 mph 12.6 mph 49% 0.00 in 410.00 W/m2
14:00 36.4 °F 19.1 °F 30.20 in NW 6.9 mph 12.6 mph 49% 0.00 in 394.00 W/m2
14:01 36.5 °F 20.1 °F 30.21 in NW 8.1 mph 11.5 mph 51% 0.00 in 394.00 W/m2
14:02 36.5 °F 20.1 °F 30.20 in WNW 6.9 mph 12.6 mph 51% 0.00 in 348.00 W/m2
14:03 36.5 °F 19.6 °F 30.20 in WNW 8.1 mph 12.6 mph 50% 0.00 in 348.00 W/m2
14:04 36.4 °F 19.5 °F 30.20 in NW 8.1 mph 14.9 mph 50% 0.00 in 327.00 W/m2
14:05 36.3 °F 19.0 °F 30.20 in NW 8.1 mph 14.9 mph 49% 0.00 in 329.00 W/m2
14:06 36.2 °F 19.8 °F 30.20 in WNW 12.6 mph 13.8 mph 51% 0.00 in 334.00 W/m2
14:08 36.3 °F 20.8 °F 30.20 in WNW 11.5 mph 13.8 mph 53% 0.00 in 329.00 W/m2
14:09 36.3 °F 20.4 °F 30.20 in WNW 12.6 mph 13.8 mph 52% 0.00 in 336.00 W/m2
14:10 36.3 °F 20.4 °F 30.21 in WNW 10.3 mph 13.8 mph 52% 0.00 in 343.00 W/m2
14:11 36.4 °F 20.5 °F 30.21 in NNW 6.9 mph 13.8 mph 52% 0.00 in 352.00 W/m2
14:12 36.3 °F 19.9 °F 30.21 in WNW 13.8 mph 19.5 mph 51% 0.00 in 369.00 W/m2
14:14 36.1 °F 19.3 °F 30.21 in NW 5.8 mph 19.5 mph 50% 0.00 in 415.00 W/m2
14:15 36.0 °F 19.6 °F 30.21 in WNW 6.9 mph 19.5 mph 51% 0.00 in 415.00 W/m2
14:16 36.0 °F 18.7 °F 30.21 in WNW 6.9 mph 19.5 mph 49% 0.00 in 415.00 W/m2
14:19 35.8 °F 18.0 °F 30.21 in NNW 8.1 mph 11.5 mph 48% 0.00 in 461.00 W/m2
14:21 35.9 °F 18.1 °F 30.21 in WNW 4.6 mph 6.9 mph 48% 0.00 in 396.00 W/m2
14:22 35.9 °F 18.6 °F 30.21 in WNW 9.2 mph 12.6 mph 49% 0.00 in 399.00 W/m2
14:24 36.0 °F 19.2 °F 30.21 in NNW 12.6 mph 17.2 mph 50% 0.00 in 476.00 W/m2
14:26 36.3 °F 19.5 °F 30.21 in NW 13.8 mph 18.4 mph 50% 0.00 in 436.00 W/m2
14:27 36.2 °F 19.4 °F 30.21 in NW 16.1 mph 18.4 mph 50% 0.00 in 436.00 W/m2
14:28 36.2 °F 19.8 °F 30.21 in WNW 4.6 mph 18.4 mph 51% 0.00 in 452.00 W/m2
14:29 36.3 °F 20.4 °F 30.21 in NW 6.9 mph 18.4 mph 52% 0.00 in 452.00 W/m2
14:32 36.7 °F 20.8 °F 30.21 in West 11.5 mph 16.1 mph 52% 0.00 in 452.00 W/m2
14:33 37.1 °F 22.4 °F 30.21 in WNW 6.9 mph 16.1 mph 55% 0.00 in 1150.00 W/m2
14:34 37.7 °F 21.7 °F 30.21 in WNW 10.3 mph 16.1 mph 52% 0.00 in 1188.00 W/m2
14:36 38.5 °F 21.5 °F 30.21 in NW 14.9 mph 14.9 mph 50% 0.00 in 1164.00 W/m2
14:37 38.5 °F 21.0 °F 30.21 in WNW 11.5 mph 14.9 mph 49% 0.00 in 1164.00 W/m2
14:38 38.4 °F 20.4 °F 30.21 in NW 6.9 mph 14.9 mph 48% 0.00 in 577.00 W/m2
14:39 38.4 °F 21.9 °F 30.21 in NW 4.6 mph 14.9 mph 51% 0.00 in 577.00 W/m2
14:40 38.8 °F 24.5 °F 30.21 in WNW 10.3 mph 14.9 mph 56% 0.00 in 555.00 W/m2
14:41 38.8 °F 21.3 °F 30.20 in WNW 10.3 mph 12.6 mph 49% 0.00 in 555.00 W/m2
14:42 38.8 °F 21.8 °F 30.20 in NW 8.1 mph 12.6 mph 50% 0.00 in 555.00 W/m2
14:44 38.7 °F 20.7 °F 30.20 in NW 11.5 mph 17.2 mph 48% 0.00 in 555.00 W/m2
14:45 38.5 °F 20.5 °F 30.20 in NNW 8.1 mph 17.2 mph 48% 0.00 in 555.00 W/m2
14:48 38.0 °F 20.5 °F 30.20 in NW 9.2 mph 16.1 mph 49% 0.00 in 413.00 W/m2
14:51 37.5 °F 20.6 °F 30.21 in NW 6.9 mph 17.2 mph 50% 0.00 in 492.00 W/m2
14:53 37.6 °F 19.7 °F 30.21 in West 11.5 mph 12.6 mph 48% 0.00 in 492.00 W/m2
14:55 37.4 °F 19.5 °F 30.21 in WNW 9.2 mph 12.6 mph 48% 0.00 in 564.00 W/m2
14:56 37.6 °F 21.1 °F 30.20 in WNW 6.9 mph 9.2 mph 51% 0.00 in 1085.00 W/m2
14:57 37.8 °F 20.8 °F 30.20 in WNW 12.6 mph 13.8 mph 50% 0.00 in 1181.00 W/m2
14:58 38.3 °F 22.7 °F 30.20 in NW 14.9 mph 14.9 mph 53% 0.00 in 1181.00 W/m2
15:00 38.6 °F 22.5 °F 30.21 in NW 9.2 mph 21.9 mph 52% 0.00 in 1081.00 W/m2
15:02 38.2 °F 21.2 °F 30.21 in NW 8.1 mph 12.6 mph 50% 0.00 in 271.00 W/m2
15:03 38.2 °F 21.2 °F 30.21 in WNW 5.8 mph 12.6 mph 50% 0.00 in 258.00 W/m2
15:04 38.1 °F 21.6 °F 30.21 in WNW 12.6 mph 12.6 mph 51% 0.00 in 253.00 W/m2
15:07 36.8 °F 19.0 °F 30.21 in WNW 12.6 mph 12.6 mph 48% 0.00 in 323.00 W/m2
15:08 36.8 °F 19.9 °F 30.21 in NW 6.9 mph 12.6 mph 50% 0.00 in 323.00 W/m2
15:09 36.9 °F 20.5 °F 30.21 in WNW 11.5 mph 12.6 mph 51% 0.00 in 323.00 W/m2
15:12 37.4 °F 21.9 °F 30.21 in NW 3.4 mph 9.2 mph 53% 0.00 in 311.00 W/m2
15:13 37.3 °F 21.3 °F 30.21 in NW 4.6 mph 9.2 mph 52% 0.00 in 311.00 W/m2
15:14 37.2 °F 20.3 °F 30.21 in WNW 6.9 mph 9.2 mph 50% 0.00 in 341.00 W/m2
15:15 37.2 °F 21.2 °F 30.20 in WNW 3.4 mph 12.6 mph 52% 0.00 in 387.00 W/m2
15:18 37.5 °F 21.0 °F 30.20 in NW 16.1 mph 16.1 mph 51% 0.00 in 387.00 W/m2
15:19 37.7 °F 21.7 °F 30.20 in WNW 12.6 mph 18.4 mph 52% 0.00 in 446.00 W/m2
15:20 37.8 °F 21.3 °F 30.20 in WNW 11.5 mph 18.4 mph 51% 0.00 in 446.00 W/m2
15:21 37.9 °F 21.4 °F 30.20 in West 6.9 mph 18.4 mph 51% 0.00 in 446.00 W/m2
15:23 38.1 °F 21.6 °F 30.20 in WNW 9.2 mph 13.8 mph 51% 0.00 in 313.00 W/m2
15:24 38.2 °F 21.7 °F 30.20 in WNW 6.9 mph 13.8 mph 51% 0.00 in 285.00 W/m2
15:25 38.1 °F 20.6 °F 30.20 in NNW 10.3 mph 13.8 mph 49% 0.00 in 288.00 W/m2
15:26 38.1 °F 20.6 °F 30.20 in NNW 8.1 mph 13.8 mph 49% 0.00 in 288.00 W/m2
15:29 38.0 °F 22.0 °F 30.20 in WNW 8.1 mph 12.6 mph 52% 0.00 in 469.00 W/m2
15:30 38.0 °F 21.0 °F 30.20 in WNW 11.5 mph 12.6 mph 50% 0.00 in 469.00 W/m2
15:31 37.9 °F 20.5 °F 30.20 in NW 12.6 mph 12.6 mph 49% 0.00 in 469.00 W/m2
15:34 37.7 °F 21.7 °F 30.20 in West 5.8 mph 13.8 mph 52% 0.00 in 308.00 W/m2
15:35 37.7 °F 21.2 °F 30.20 in NW 14.9 mph 16.1 mph 51% 0.00 in 308.00 W/m2
15:36 37.5 °F 21.0 °F 30.20 in West 6.9 mph 9.2 mph 51% 0.00 in 308.00 W/m2
15:37 37.4 °F 20.9 °F 30.20 in WSW 8.1 mph 9.2 mph 51% 0.00 in 325.00 W/m2
15:40 37.3 °F 21.3 °F 30.20 in NW 10.3 mph 13.8 mph 52% 0.00 in 371.00 W/m2
15:41 37.3 °F 21.3 °F 30.20 in WNW 8.1 mph 13.8 mph 52% 0.00 in 329.00 W/m2
15:42 37.1 °F 20.2 °F 30.20 in NW 13.8 mph 16.1 mph 50% 0.00 in 359.00 W/m2
15:44 36.9 °F 20.0 °F 30.20 in WNW 6.9 mph 16.1 mph 50% 0.00 in 294.00 W/m2
15:46 36.8 °F 20.4 °F 30.21 in WNW 9.2 mph 16.1 mph 51% 0.00 in 265.00 W/m2
15:47 36.7 °F 20.8 °F 30.21 in NW 8.1 mph 11.5 mph 52% 0.00 in 258.00 W/m2
15:48 36.7 °F 20.8 °F 30.21 in NW 10.3 mph 11.5 mph 52% 0.00 in 262.00 W/m2
15:50 36.7 °F 20.3 °F 30.21 in NW 6.9 mph 11.5 mph 51% 0.00 in 260.00 W/m2
15:51 36.6 °F 20.6 °F 30.20 in NW 9.2 mph 10.3 mph 52% 0.00 in 264.00 W/m2
15:52 36.6 °F 20.6 °F 30.20 in NW 6.9 mph 10.3 mph 52% 0.00 in 265.00 W/m2
15:53 36.6 °F 20.6 °F 30.21 in WNW 11.5 mph 13.8 mph 52% 0.00 in 302.00 W/m2
15:54 36.5 °F 20.6 °F 30.20 in WNW 6.9 mph 13.8 mph 52% 0.00 in 287.00 W/m2
15:56 36.4 °F 20.5 °F 30.20 in WNW 8.1 mph 13.8 mph 52% 0.00 in 301.00 W/m2
15:58 36.4 °F 20.5 °F 30.20 in WSW 9.2 mph 12.6 mph 52% 0.00 in 301.00 W/m2
15:59 36.3 °F 19.9 °F 30.20 in WNW 6.9 mph 12.6 mph 51% 0.00 in 255.00 W/m2
16:01 36.4 °F 21.4 °F 30.21 in West 6.9 mph 12.6 mph 54% 0.00 in 279.00 W/m2
16:02 36.7 °F 21.6 °F 30.20 in WNW 9.2 mph 11.5 mph 54% 0.00 in 279.00 W/m2
16:03 36.7 °F 20.3 °F 30.21 in WNW 5.8 mph 11.5 mph 51% 0.00 in 373.00 W/m2
16:04 36.6 °F 20.2 °F 30.21 in West 9.2 mph 11.5 mph 51% 0.00 in 443.00 W/m2
16:07 37.2 °F 22.1 °F 30.21 in NW 8.1 mph 12.6 mph 54% 0.00 in 274.00 W/m2
16:08 37.1 °F 21.6 °F 30.20 in WNW 12.6 mph 12.6 mph 53% 0.00 in 301.00 W/m2
16:10 37.0 °F 21.5 °F 30.21 in WNW 11.5 mph 13.8 mph 53% 0.00 in 250.00 W/m2
16:13 36.8 °F 21.3 °F 30.20 in WNW 5.8 mph 11.5 mph 53% 0.00 in 299.00 W/m2
16:14 36.7 °F 20.8 °F 30.21 in WNW 10.3 mph 11.5 mph 52% 0.00 in 292.00 W/m2
16:17 36.7 °F 22.5 °F 30.20 in WNW 6.9 mph 8.1 mph 56% 0.00 in 311.00 W/m2
16:18 36.7 °F 22.5 °F 30.20 in WNW 6.9 mph 8.1 mph 56% 0.00 in 311.00 W/m2
16:19 37.0 °F 21.9 °F 30.20 in NW 10.3 mph 13.8 mph 54% 0.00 in 264.00 W/m2
16:20 37.0 °F 21.9 °F 30.20 in NW 12.6 mph 13.8 mph 54% 0.00 in 264.00 W/m2
16:24 36.9 °F 21.8 °F 30.20 in WNW 11.5 mph 11.5 mph 54% 0.00 in 179.00 W/m2
16:25 36.7 °F 21.2 °F 30.20 in WNW 6.9 mph 11.5 mph 53% 0.00 in 181.00 W/m2
16:29 36.3 °F 21.7 °F 30.20 in West 4.6 mph 6.9 mph 55% 0.00 in 220.00 W/m2
16:30 36.4 °F 22.6 °F 30.20 in NNW 4.6 mph 6.9 mph 57% 0.00 in 220.00 W/m2
16:34 37.4 °F 22.7 °F 30.20 in WNW 9.2 mph 11.5 mph 55% 0.00 in 496.00 W/m2
16:35 37.7 °F 23.0 °F 30.20 in NW 6.9 mph 11.5 mph 55% 0.00 in 563.00 W/m2
16:36 37.8 °F 22.7 °F 30.20 in NW 10.3 mph 14.9 mph 54% 0.00 in 563.00 W/m2
16:40 37.8 °F 21.8 °F 30.19 in WSW 5.8 mph 10.3 mph 52% 0.00 in 209.00 W/m2
16:41 37.7 °F 22.1 °F 30.19 in WSW 9.2 mph 10.3 mph 53% 0.00 in 209.00 W/m2
16:42 37.7 °F 22.1 °F 30.19 in West 4.6 mph 9.2 mph 53% 0.00 in 209.00 W/m2
16:46 37.8 °F 21.8 °F 30.20 in WNW 10.3 mph 13.8 mph 52% 0.00 in 325.00 W/m2
16:47 37.5 °F 21.5 °F 30.19 in WNW 4.6 mph 11.5 mph 52% 0.00 in 408.00 W/m2
16:48 37.4 °F 21.9 °F 30.20 in West 4.6 mph 11.5 mph 53% 0.00 in 396.00 W/m2
16:50 37.3 °F 21.8 °F 30.19 in NW 8.1 mph 11.5 mph 53% 0.00 in 376.00 W/m2
16:51 37.3 °F 22.2 °F 30.20 in WNW 5.8 mph 8.1 mph 54% 0.00 in 297.00 W/m2
16:52 37.3 °F 22.2 °F 30.20 in West 8.1 mph 10.3 mph 54% 0.00 in 297.00 W/m2
16:53 37.4 °F 21.9 °F 30.20 in West 8.1 mph 10.3 mph 53% 0.00 in 190.00 W/m2
16:54 37.3 °F 21.8 °F 30.20 in West 4.6 mph 10.3 mph 53% 0.00 in 181.00 W/m2
16:55 37.1 °F 21.6 °F 30.20 in WSW 5.8 mph 10.3 mph 53% 0.00 in 246.00 W/m2
16:57 36.9 °F 21.4 °F 30.19 in WSW 4.6 mph 5.8 mph 53% 0.00 in 167.00 W/m2
16:58 36.7 °F 21.6 °F 30.20 in WNW 4.6 mph 9.2 mph 54% 0.00 in 167.00 W/m2
16:59 36.7 °F 21.6 °F 30.20 in West 5.8 mph 9.2 mph 54% 0.00 in 160.00 W/m2
17:02 36.9 °F 21.8 °F 30.20 in SW 6.9 mph 9.2 mph 54% 0.00 in 132.00 W/m2
17:04 36.8 °F 21.7 °F 30.20 in SW 3.4 mph 9.2 mph 54% 0.00 in 121.00 W/m2
17:05 36.7 °F 21.6 °F 30.20 in SW 4.6 mph 9.2 mph 54% 0.00 in 120.00 W/m2
17:07 36.6 °F 22.0 °F 30.20 in WSW 5.8 mph 6.9 mph 55% 0.00 in 142.00 W/m2
17:08 36.6 °F 22.0 °F 30.20 in West 5.8 mph 8.1 mph 55% 0.00 in 137.00 W/m2
17:09 36.6 °F 22.4 °F 30.20 in West 6.9 mph 9.2 mph 56% 0.00 in 137.00 W/m2
17:11 36.7 °F 22.9 °F 30.20 in West 5.8 mph 9.2 mph 57% 0.00 in 149.00 W/m2
17:14 36.5 °F 22.7 °F 30.20 in WNW 5.8 mph 10.3 mph 57% 0.00 in 132.00 W/m2
17:15 36.6 °F 22.4 °F 30.20 in NW 1.1 mph 10.3 mph 56% 0.00 in 132.00 W/m2
17:16 36.7 °F 22.9 °F 30.20 in NW 1.1 mph 10.3 mph 57% 0.00 in 118.00 W/m2
17:17 36.7 °F 22.9 °F 30.20 in WNW 4.6 mph 6.9 mph 57% 0.00 in 107.00 W/m2
17:18 36.7 °F 22.5 °F 30.20 in WNW 5.8 mph 6.9 mph 56% 0.00 in 95.00 W/m2
17:20 36.5 °F 22.3 °F 30.20 in West 5.8 mph 6.9 mph 56% 0.00 in 98.00 W/m2
17:22 36.5 °F 21.9 °F 30.20 in WSW 8.1 mph 8.1 mph 55% 0.00 in 107.00 W/m2
17:23 36.5 °F 22.3 °F 30.20 in WSW 4.6 mph 8.1 mph 56% 0.00 in 116.00 W/m2
17:24 36.5 °F 21.9 °F 30.20 in WSW 3.4 mph 8.1 mph 55% 0.00 in 127.00 W/m2
17:26 36.5 °F 22.3 °F 30.20 in WSW 5.8 mph 5.8 mph 56% 0.00 in 125.00 W/m2
17:28 36.4 °F 21.8 °F 30.20 in WSW 4.6 mph 5.8 mph 55% 0.00 in 113.00 W/m2
17:29 36.3 °F 21.7 °F 30.20 in WSW 2.3 mph 5.8 mph 55% 0.00 in 95.00 W/m2
17:30 36.3 °F 21.7 °F 30.20 in Calm   5.8 mph 55% 0.00 in 91.00 W/m2
17:33 36.1 °F 21.9 °F 30.20 in WSW 6.9 mph 6.9 mph 56% 0.00 in 93.00 W/m2
17:34 36.2 °F 22.9 °F 30.20 in WSW 2.3 mph 8.1 mph 58% 0.00 in 302.00 W/m2
17:35 36.4 °F 23.5 °F 30.20 in WSW 2.3 mph 8.1 mph 59% 0.00 in 255.00 W/m2
17:36 36.7 °F 22.5 °F 30.20 in Calm   2.3 mph 56% 0.00 in 199.00 W/m2
17:40 37.1 °F 23.3 °F 30.20 in WSW 3.4 mph 4.6 mph 57% 0.00 in 418.00 W/m2
17:41 37.2 °F 23.4 °F 30.20 in WSW 3.4 mph 4.6 mph 57% 0.00 in 418.00 W/m2
17:42 37.5 °F 23.7 °F 30.20 in WSW 2.3 mph 4.6 mph 57% 0.00 in 417.00 W/m2
17:46 37.7 °F 22.6 °F 30.20 in WSW 2.3 mph 2.3 mph 54% 0.00 in 355.00 W/m2
17:47 37.7 °F 23.4 °F 30.20 in WSW 1.1 mph 2.3 mph 56% 0.00 in 352.00 W/m2
17:48 37.8 °F 24.0 °F 30.20 in Calm   2.3 mph 57% 0.00 in 346.00 W/m2
17:51 37.8 °F 22.7 °F 30.20 in WNW 9.2 mph 9.2 mph 54% 0.00 in 230.00 W/m2
17:52 37.8 °F 22.7 °F 30.20 in West 5.8 mph 9.2 mph 54% 0.00 in 230.00 W/m2
17:53 37.8 °F 22.7 °F 30.20 in West 2.3 mph 9.2 mph 54% 0.00 in 207.00 W/m2
17:57 37.7 °F 22.1 °F 30.21 in West 3.4 mph 5.8 mph 53% 0.00 in 86.00 W/m2
17:58 37.6 °F 22.0 °F 30.20 in WNW 5.8 mph 6.9 mph 53% 0.00 in 90.00 W/m2
17:59 37.5 °F 21.9 °F 30.20 in WNW 6.9 mph 9.2 mph 53% 0.00 in 113.00 W/m2
18:00 37.3 °F 21.8 °F 30.20 in WSW 6.9 mph 9.2 mph 53% 0.00 in 197.00 W/m2
18:02 37.3 °F 22.2 °F 30.21 in WNW 5.8 mph 8.1 mph 54% 0.00 in 181.00 W/m2
18:03 37.3 °F 22.2 °F 30.21 in WNW 4.6 mph 8.1 mph 54% 0.00 in 100.00 W/m2
18:05 37.3 °F 22.6 °F 30.21 in West 9.2 mph 13.8 mph 55% 0.00 in 105.00 W/m2
18:06 37.3 °F 22.6 °F 30.21 in West 5.8 mph 11.5 mph 55% 0.00 in 113.00 W/m2
18:07 37.2 °F 22.5 °F 30.21 in West 8.1 mph 11.5 mph 55% 0.00 in 116.00 W/m2
18:09 37.1 °F 22.9 °F 30.21 in West 5.8 mph 11.5 mph 56% 0.00 in 116.00 W/m2
18:10 37.1 °F 22.9 °F 30.21 in West 6.9 mph 11.5 mph 56% 0.00 in 114.00 W/m2
18:11 37.1 °F 22.9 °F 30.21 in West 9.2 mph 9.2 mph 56% 0.00 in 111.00 W/m2
18:12 37.1 °F 22.9 °F 30.21 in WNW 9.2 mph 9.2 mph 56% 0.00 in 109.00 W/m2
18:13 37.0 °F 22.8 °F 30.21 in West 8.1 mph 9.2 mph 56% 0.00 in 107.00 W/m2
18:15 36.8 °F 22.2 °F 30.21 in West 4.6 mph 9.2 mph 55% 0.00 in 105.00 W/m2
18:16 36.7 °F 22.5 °F 30.21 in West 3.4 mph 6.9 mph 56% 0.00 in 104.00 W/m2
18:17 36.7 °F 22.5 °F 30.21 in West 4.6 mph 6.9 mph 56% 0.00 in 102.00 W/m2
18:18 36.7 °F 22.5 °F 30.21 in WNW 8.1 mph 10.3 mph 56% 0.00 in 97.00 W/m2
18:20 36.7 °F 22.9 °F 30.21 in NW 5.8 mph 10.3 mph 57% 0.00 in 86.00 W/m2
18:21 36.7 °F 22.5 °F 30.21 in NW 4.6 mph 6.9 mph 56% 0.00 in 81.00 W/m2
18:22 36.6 °F 22.4 °F 30.21 in NW 5.8 mph 6.9 mph 56% 0.00 in 76.00 W/m2
18:23 36.6 °F 22.8 °F 30.21 in WNW 6.9 mph 9.2 mph 57% 0.00 in 70.00 W/m2
18:27 36.5 °F 22.7 °F 30.21 in WNW 5.8 mph 9.2 mph 57% 0.00 in 62.00 W/m2
18:28 36.5 °F 22.7 °F 30.21 in WNW 2.3 mph 9.2 mph 57% 0.00 in 63.00 W/m2
18:29 36.5 °F 23.1 °F 30.22 in WNW 8.1 mph 9.2 mph 58% 0.00 in 65.00 W/m2
18:30 36.5 °F 23.1 °F 30.22 in WNW 2.3 mph 9.2 mph 58% 0.00 in 72.00 W/m2
18:33 36.5 °F 22.7 °F 30.22 in WNW 3.4 mph 8.1 mph 57% 0.00 in 69.00 W/m2
18:35 36.5 °F 22.7 °F 30.21 in WNW 2.3 mph 8.1 mph 57% 0.00 in 76.00 W/m2
18:38 36.5 °F 22.7 °F 30.22 in WNW 6.9 mph 6.9 mph 57% 0.00 in 98.00 W/m2
18:39 36.5 °F 22.7 °F 30.22 in WNW 5.8 mph 6.9 mph 57% 0.00 in 100.00 W/m2
18:40 36.6 °F 23.2 °F 30.21 in WNW 5.8 mph 6.9 mph 58% 0.00 in 113.00 W/m2
18:41 36.7 °F 23.3 °F 30.21 in WNW 4.6 mph 6.9 mph 58% 0.00 in 118.00 W/m2
18:42 36.8 °F 23.0 °F 30.21 in WNW 3.4 mph 5.8 mph 57% 0.00 in 116.00 W/m2
18:43 36.9 °F 23.1 °F 30.21 in WNW 6.9 mph 6.9 mph 57% 0.00 in 132.00 W/m2
18:44 36.9 °F 23.1 °F 30.21 in WNW 4.6 mph 6.9 mph 57% 0.00 in 134.00 W/m2
18:45 37.0 °F 23.2 °F 30.21 in NW 2.3 mph 8.1 mph 57% 0.00 in 132.00 W/m2
18:46 37.1 °F 23.3 °F 30.21 in NW 5.8 mph 6.9 mph 57% 0.00 in 125.00 W/m2
18:47 37.1 °F 23.3 °F 30.21 in WNW 6.9 mph 6.9 mph 57% 0.00 in 125.00 W/m2
18:48 37.2 °F 23.8 °F 30.21 in WNW 5.8 mph 6.9 mph 58% 0.00 in 121.00 W/m2
18:49 37.3 °F 23.1 °F 30.21 in WNW 5.8 mph 8.1 mph 56% 0.00 in 116.00 W/m2
18:51 37.3 °F 22.6 °F 30.21 in WNW 3.4 mph 8.1 mph 55% 0.00 in 107.00 W/m2
18:53 37.2 °F 23.0 °F 30.21 in WNW 3.4 mph 6.9 mph 56% 0.00 in 91.00 W/m2
18:54 37.2 °F 23.0 °F 30.21 in WNW 4.6 mph 6.9 mph 56% 0.00 in 54.00 W/m2
18:56 37.1 °F 22.9 °F 30.21 in WNW 3.4 mph 6.9 mph 56% 0.00 in 51.00 W/m2
18:58 36.9 °F 23.1 °F 30.21 in WNW 3.4 mph 4.6 mph 57% 0.00 in 35.00 W/m2
18:59 36.8 °F 22.6 °F 30.21 in WNW 2.3 mph 4.6 mph 56% 0.00 in 33.00 W/m2
19:01 36.6 °F 22.4 °F 30.21 in WNW 6.9 mph 6.9 mph 56% 0.00 in 30.00 W/m2
19:02 36.5 °F 22.3 °F 30.21 in WNW 3.4 mph 6.9 mph 56% 0.00 in 32.00 W/m2
19:03 36.4 °F 22.2 °F 30.21 in WNW 3.4 mph 6.9 mph 56% 0.00 in 30.00 W/m2
19:06 36.3 °F 22.1 °F 30.21 in WNW 3.4 mph 4.6 mph 56% 0.00 in 23.00 W/m2
19:07 36.2 °F 22.9 °F 30.21 in WNW 2.3 mph 4.6 mph 58% 0.00 in 21.00 W/m2
19:08 36.1 °F 22.4 °F 30.21 in WNW 2.3 mph 4.6 mph 57% 0.00 in 21.00 W/m2
19:09 36.1 °F 22.4 °F 30.21 in WNW 2.3 mph 4.6 mph 57% 0.00 in 18.00 W/m2
19:11 35.9 °F 22.2 °F 30.21 in WNW 3.4 mph 3.4 mph 57% 0.00 in 16.00 W/m2
19:12 35.9 °F 22.2 °F 30.21 in WNW 2.3 mph 3.4 mph 57% 0.00 in 16.00 W/m2
19:14 35.8 °F 22.5 °F 30.21 in WNW 1.1 mph 3.4 mph 58% 0.00 in 14.00 W/m2
19:15 35.7 °F 22.4 °F 30.21 in WNW 1.1 mph 3.4 mph 58% 0.00 in 14.00 W/m2
19:16 35.7 °F 22.4 °F 30.22 in WNW 1.1 mph 2.3 mph 58% 0.00 in 14.00 W/m2
19:17 35.6 °F 22.3 °F 30.22 in Calm   2.3 mph 58% 0.00 in 14.00 W/m2
19:18 35.6 °F 22.7 °F 30.22 in WNW 1.1 mph 2.3 mph 59% 0.00 in 12.00 W/m2
19:19 35.5 °F 22.6 °F 30.22 in WNW 1.1 mph 2.3 mph 59% 0.00 in 12.00 W/m2
19:21 35.3 °F 22.8 °F 30.22 in WNW 2.3 mph 2.3 mph 60% 0.00 in 11.00 W/m2
19:22 35.2 °F 22.7 °F 30.22 in WNW 1.1 mph 3.4 mph 60% 0.00 in 11.00 W/m2
19:24 35.0 °F 22.9 °F 30.22 in WNW 3.4 mph 4.6 mph 61% 0.00 in 9.00 W/m2
19:25 35.0 °F 22.9 °F 30.22 in WNW 1.1 mph 4.6 mph 61% 0.00 in 7.00 W/m2
19:27 35.0 °F 22.9 °F 30.22 in WNW 1.1 mph 2.3 mph 61% 0.00 in 7.00 W/m2
19:28 35.0 °F 22.9 °F 30.22 in WNW 2.3 mph 3.4 mph 61% 0.00 in 5.00 W/m2
19:29 35.0 °F 22.9 °F 30.22 in WNW 4.6 mph 4.6 mph 61% 0.00 in 5.00 W/m2
19:30 35.0 °F 23.3 °F 30.22 in WNW 2.3 mph 4.6 mph 62% 0.00 in 5.00 W/m2
19:31 34.9 °F 23.2 °F 30.22 in Calm     62% 0.00 in 0.00 W/m2
19:32 34.8 °F 23.5 °F 30.22 in WNW 2.3 mph 2.3 mph 63% 0.00 in 0.00 W/m2
19:33 34.8 °F 23.1 °F 30.22 in Calm   3.4 mph 62% 0.00 in 0.00 W/m2
19:36 34.8 °F 23.1 °F 30.22 in Calm   3.4 mph 62% 0.00 in 0.00 W/m2
19:38 34.7 °F 23.0 °F 30.22 in Calm   1.1 mph 62% 0.00 in 0.00 W/m2
19:39 34.7 °F 23.0 °F 30.22 in WNW 2.3 mph 2.3 mph 62% 0.00 in 0.00 W/m2
19:41 34.7 °F 23.0 °F 30.22 in WNW 1.1 mph 1.1 mph 62% 0.00 in 0.00 W/m2
19:42 34.6 °F 22.9 °F 30.22 in Calm   1.1 mph 62% 0.00 in 0.00 W/m2
19:43 34.4 °F 22.7 °F 30.22 in Calm   1.1 mph 62% 0.00 in 0.00 W/m2
19:44 34.3 °F 23.0 °F 30.22 in Calm   1.1 mph 63% 0.00 in 0.00 W/m2
19:45 34.2 °F 22.9 °F 30.22 in Calm   1.1 mph 63% 0.00 in 0.00 W/m2
19:46 34.0 °F 23.1 °F 30.22 in Calm     64% 0.00 in 0.00 W/m2
19:47 33.9 °F 22.6 °F 30.22 in Calm     63% 0.00 in 0.00 W/m2
19:48 33.7 °F 22.5 °F 30.22 in Calm     63% 0.00 in 0.00 W/m2
19:50 33.5 °F 22.6 °F 30.22 in Calm     64% 0.00 in 0.00 W/m2
19:52 33.3 °F 22.5 °F 30.23 in Calm     64% 0.00 in 0.00 W/m2
19:54 33.0 °F 22.9 °F 30.23 in Calm     66% 0.00 in 0.00 W/m2
19:56 32.7 °F 23.0 °F 30.22 in Calm     67% 0.00 in 0.00 W/m2
19:57 32.6 °F 22.9 °F 30.23 in Calm     67% 0.00 in 0.00 W/m2
19:58 32.6 °F 22.9 °F 30.23 in Calm     67% 0.00 in 0.00 W/m2
19:59 32.5 °F 22.8 °F 30.23 in Calm     67% 0.00 in 0.00 W/m2
20:00 32.4 °F 23.0 °F 30.23 in Calm     68% 0.00 in 0.00 W/m2
20:01 32.4 °F 23.0 °F 30.23 in Calm     68% 0.00 in 0.00 W/m2
20:03 32.3 °F 22.9 °F 30.23 in Calm     68% 0.00 in 0.00 W/m2
20:04 32.2 °F 23.2 °F 30.23 in Calm     69% 0.00 in 0.00 W/m2
20:05 32.1 °F 23.1 °F 30.23 in Calm     69% 0.00 in 0.00 W/m2
20:06 32.1 °F 23.1 °F 30.23 in Calm     69% 0.00 in 0.00 W/m2
20:08 32.0 °F 23.0 °F 30.23 in Calm     69% 0.00 in 0.00 W/m2
20:10 31.9 °F 23.2 °F 30.23 in Calm     70% 0.00 in 0.00 W/m2
20:11 32.0 °F 23.3 °F 30.23 in Calm     70% 0.00 in 0.00 W/m2
20:14 32.1 °F 23.8 °F 30.24 in Calm     71% 0.00 in 0.00 W/m2
20:16 32.0 °F 23.0 °F 30.24 in Calm     69% 0.00 in 0.00 W/m2
20:19 31.9 °F 23.2 °F 30.24 in Calm     70% 0.00 in 0.00 W/m2
20:20 31.8 °F 23.1 °F 30.24 in Calm     70% 0.00 in 0.00 W/m2
20:21 31.7 °F 23.0 °F 30.24 in Calm     70% 0.00 in 0.00 W/m2
20:22 31.7 °F 23.4 °F 30.24 in Calm     71% 0.00 in 0.00 W/m2
20:25 31.6 °F 23.6 °F 30.24 in Calm     72% 0.00 in 0.00 W/m2
20:26 31.6 °F 23.3 °F 30.24 in Calm     71% 0.00 in 0.00 W/m2
20:27 31.5 °F 23.2 °F 30.24 in Calm     71% 0.00 in 0.00 W/m2
20:29 31.5 °F 23.2 °F 30.24 in Calm     71% 0.00 in 0.00 W/m2
20:30 31.5 °F 23.5 °F 30.24 in Calm     72% 0.00 in 0.00 W/m2
20:31 31.4 °F 23.4 °F 30.24 in Calm     72% 0.00 in 0.00 W/m2
20:32 31.3 °F 23.3 °F 30.24 in Calm     72% 0.00 in 0.00 W/m2
20:33 31.2 °F 23.6 °F 30.24 in Calm     73% 0.00 in 0.00 W/m2
20:35 31.2 °F 23.6 °F 30.24 in Calm     73% 0.00 in 0.00 W/m2
20:37 31.2 °F 23.6 °F 30.24 in Calm     73% 0.00 in 0.00 W/m2
20:38 31.1 °F 23.5 °F 30.24 in Calm     73% 0.00 in 0.00 W/m2
20:39 31.0 °F 23.4 °F 30.24 in Calm     73% 0.00 in 0.00 W/m2
20:42 30.9 °F 23.3 °F 30.24 in Calm     73% 0.00 in 0.00 W/m2
20:43 31.0 °F 23.4 °F 30.24 in Calm     73% 0.00 in 0.00 W/m2
20:44 30.9 °F 23.6 °F 30.25 in Calm     74% 0.00 in 0.00 W/m2
20:46 30.8 °F 23.5 °F 30.24 in Calm     74% 0.00 in 0.00 W/m2
20:48 30.8 °F 23.5 °F 30.24 in Calm     74% 0.00 in 0.00 W/m2
20:49 30.8 °F 23.8 °F 30.25 in WNW 1.1 mph 2.3 mph 75% 0.00 in 0.00 W/m2
20:50 30.8 °F 23.5 °F 30.25 in WNW 1.1 mph 2.3 mph 74% 0.00 in 0.00 W/m2
20:51 30.8 °F 23.5 °F 30.25 in WNW 2.3 mph 2.3 mph 74% 0.00 in 0.00 W/m2
20:53 31.0 °F 23.7 °F 30.25 in WNW 1.1 mph 2.3 mph 74% 0.00 in 0.00 W/m2
20:54 31.0 °F 23.7 °F 30.25 in WNW 2.3 mph 2.3 mph 74% 0.00 in 0.00 W/m2
20:55 31.2 °F 23.9 °F 30.25 in WNW 1.1 mph 2.3 mph 74% 0.00 in 0.00 W/m2
20:56 31.2 °F 23.9 °F 30.25 in Calm   1.1 mph 74% 0.00 in 0.00 W/m2
20:59 31.2 °F 23.9 °F 30.25 in WNW 1.1 mph 2.3 mph 74% 0.00 in 0.00 W/m2
21:00 31.1 °F 23.8 °F 30.25 in Calm   2.3 mph 74% 0.00 in 0.00 W/m2
21:01 31.0 °F 23.7 °F 30.25 in WNW 1.1 mph 1.1 mph 74% 0.00 in 0.00 W/m2
21:02 31.0 °F 23.7 °F 30.25 in WNW 1.1 mph 1.1 mph 74% 0.00 in 0.00 W/m2
21:03 30.9 °F 23.9 °F 30.25 in Calm   1.1 mph 75% 0.00 in 0.00 W/m2
21:05 30.8 °F 23.8 °F 30.25 in WNW 1.1 mph 2.3 mph 75% 0.00 in 0.00 W/m2
21:06 30.8 °F 23.8 °F 30.25 in Calm   2.3 mph 75% 0.00 in 0.00 W/m2
21:07 30.6 °F 23.6 °F 30.25 in Calm     75% 0.00 in 0.00 W/m2
21:08 30.6 °F 24.0 °F 30.25 in Calm   1.1 mph 76% 0.00 in 0.00 W/m2
21:11 30.3 °F 23.7 °F 30.25 in Calm   1.1 mph 76% 0.00 in 0.00 W/m2
21:12 30.3 °F 24.0 °F 30.25 in Calm   1.1 mph 77% 0.00 in 0.00 W/m2
21:14 30.2 °F 23.9 °F 30.25 in Calm   1.1 mph 77% 0.00 in 0.00 W/m2
21:15 30.1 °F 23.8 °F 30.25 in Calm   1.1 mph 77% 0.00 in 0.00 W/m2
21:17 30.1 °F 23.8 °F 30.25 in Calm     77% 0.00 in 0.00 W/m2
21:18 30.1 °F 23.8 °F 30.25 in Calm     77% 0.00 in 0.00 W/m2
21:20 30.0 °F 23.7 °F 30.25 in Calm     77% 0.00 in 0.00 W/m2
21:23 30.0 °F 23.7 °F 30.25 in Calm     77% 0.00 in 0.00 W/m2
21:25 29.9 °F 23.6 °F 30.25 in WNW 1.1 mph 1.1 mph 77% 0.00 in 0.00 W/m2
21:26 29.9 °F 23.6 °F 30.25 in WNW 1.1 mph 1.1 mph 77% 0.00 in 0.00 W/m2
21:28 29.9 °F 23.9 °F 30.25 in WNW 1.1 mph 2.3 mph 78% 0.00 in 0.00 W/m2
21:29 29.8 °F 23.8 °F 30.25 in Calm   2.3 mph 78% 0.00 in 0.00 W/m2
21:30 29.9 °F 23.9 °F 30.25 in Calm   2.3 mph 78% 0.00 in 0.00 W/m2
21:32 29.9 °F 23.9 °F 30.25 in Calm     78% 0.00 in 0.00 W/m2
21:33 30.0 °F 24.0 °F 30.26 in Calm     78% 0.00 in 0.00 W/m2
21:35 30.1 °F 24.1 °F 30.26 in Calm     78% 0.00 in 0.00 W/m2
21:36 30.1 °F 24.1 °F 30.26 in Calm     78% 0.00 in 0.00 W/m2
21:38 29.9 °F 23.9 °F 30.26 in Calm     78% 0.00 in 0.00 W/m2
21:39 29.9 °F 23.9 °F 30.26 in Calm     78% 0.00 in 0.00 W/m2
21:40 29.8 °F 23.8 °F 30.26 in Calm     78% 0.00 in 0.00 W/m2
21:41 29.7 °F 23.7 °F 30.26 in Calm     78% 0.00 in 0.00 W/m2
21:42 29.6 °F 23.9 °F 30.26 in Calm     79% 0.00 in 0.00 W/m2
21:44 29.5 °F 23.8 °F 30.26 in Calm     79% 0.00 in 0.00 W/m2
21:45 29.5 °F 23.8 °F 30.26 in Calm     79% 0.00 in 0.00 W/m2
21:46 29.5 °F 23.8 °F 30.26 in Calm     79% 0.00 in 0.00 W/m2
21:48 29.4 °F 23.7 °F 30.26 in Calm     79% 0.00 in 0.00 W/m2
21:49 29.3 °F 23.9 °F 30.26 in Calm     80% 0.00 in 0.00 W/m2
21:50 29.3 °F 23.9 °F 30.26 in Calm     80% 0.00 in 0.00 W/m2
21:51 29.3 °F 23.9 °F 30.26 in Calm     80% 0.00 in 0.00 W/m2
21:55 29.3 °F 23.9 °F 30.26 in WNW 1.1 mph 2.3 mph 80% 0.00 in 0.00 W/m2
21:56 29.3 °F 23.9 °F 30.26 in Calm   2.3 mph 80% 0.00 in 0.00 W/m2
21:57 29.3 °F 23.9 °F 30.26 in Calm   2.3 mph 80% 0.00 in 0.00 W/m2
22:01 29.2 °F 24.1 °F 30.26 in WNW 2.3 mph 2.3 mph 81% 0.00 in 0.00 W/m2
22:02 29.2 °F 24.1 °F 30.26 in WNW 1.1 mph 2.3 mph 81% 0.00 in 0.00 W/m2
22:03 29.2 °F 24.1 °F 30.26 in WNW 2.3 mph 3.4 mph 81% 0.00 in 0.00 W/m2
22:06 29.1 °F 24.0 °F 30.26 in Calm     81% 0.00 in 0.00 W/m2
22:07 29.1 °F 24.0 °F 30.26 in Calm   1.1 mph 81% 0.00 in 0.00 W/m2
22:08 29.1 °F 24.0 °F 30.26 in Calm   1.1 mph 81% 0.00 in 0.00 W/m2
22:11 29.0 °F 23.9 °F 30.26 in Calm   2.3 mph 81% 0.00 in 0.00 W/m2
22:12 29.0 °F 23.9 °F 30.26 in Calm   1.1 mph 81% 0.00 in 0.00 W/m2
22:13 29.0 °F 23.9 °F 30.26 in Calm   1.1 mph 81% 0.00 in 0.00 W/m2
22:14 29.0 °F 23.9 °F 30.26 in Calm   1.1 mph 81% 0.00 in 0.00 W/m2
22:17 29.0 °F 23.9 °F 30.26 in WNW 1.1 mph 1.1 mph 81% 0.00 in 0.00 W/m2
22:18 29.0 °F 23.9 °F 30.26 in WNW 1.1 mph 2.3 mph 81% 0.00 in 0.00 W/m2
22:19 29.0 °F 23.9 °F 30.26 in WNW 1.1 mph 2.3 mph 81% 0.00 in 0.00 W/m2
22:20 29.0 °F 23.9 °F 30.26 in WNW 3.4 mph 3.4 mph 81% 0.00 in 0.00 W/m2
22:21 29.0 °F 23.9 °F 30.26 in WNW 1.1 mph 3.4 mph 81% 0.00 in 0.00 W/m2
22:22 29.0 °F 23.9 °F 30.26 in WNW 1.1 mph 3.4 mph 81% 0.00 in 0.00 W/m2
22:23 29.0 °F 23.9 °F 30.25 in Calm   3.4 mph 81% 0.00 in 0.00 W/m2
22:24 29.0 °F 23.9 °F 30.26 in WNW 1.1 mph 3.4 mph 81% 0.00 in 0.00 W/m2
22:27 29.0 °F 23.9 °F 30.25 in Calm   1.1 mph 81% 0.00 in 0.00 W/m2
22:28 29.0 °F 23.9 °F 30.25 in WNW 1.1 mph 1.1 mph 81% 0.00 in 0.00 W/m2
22:29 29.0 °F 23.9 °F 30.25 in WNW 1.1 mph 2.3 mph 81% 0.00 in 0.00 W/m2
22:31 29.0 °F 23.9 °F 30.25 in WNW 1.1 mph 2.3 mph 81% 0.00 in 0.00 W/m2
22:32 28.9 °F 23.8 °F 30.25 in WNW 1.1 mph 1.1 mph 81% 0.00 in 0.00 W/m2
22:34 29.0 °F 23.9 °F 30.25 in Calm   2.3 mph 81% 0.00 in 0.00 W/m2
22:35 28.9 °F 23.8 °F 30.25 in WNW 1.1 mph 2.3 mph 81% 0.00 in 0.00 W/m2
22:36 28.9 °F 23.8 °F 30.25 in WNW 2.3 mph 2.3 mph 81% 0.00 in 0.00 W/m2
22:37 28.9 °F 23.8 °F 30.25 in WNW 2.3 mph 2.3 mph 81% 0.00 in 0.00 W/m2
22:38 28.9 °F 23.8 °F 30.25 in WNW 1.1 mph 3.4 mph 81% 0.00 in 0.00 W/m2
22:40 29.0 °F 23.9 °F 30.25 in WNW 2.3 mph 3.4 mph 81% 0.00 in 0.00 W/m2
22:41 29.0 °F 23.9 °F 30.25 in WNW 1.1 mph 3.4 mph 81% 0.00 in 0.00 W/m2
22:42 28.9 °F 23.8 °F 30.25 in WNW 1.1 mph 3.4 mph 81% 0.00 in 0.00 W/m2
22:44 28.8 °F 23.7 °F 30.25 in WNW 1.1 mph 3.4 mph 81% 0.00 in 0.00 W/m2
22:46 28.8 °F 23.7 °F 30.25 in WNW 2.3 mph 4.6 mph 81% 0.00 in 0.00 W/m2
22:47 28.8 °F 23.7 °F 30.25 in WNW 3.4 mph 3.4 mph 81% 0.00 in 0.00 W/m2
22:48 28.7 °F 23.6 °F 30.25 in WNW 1.1 mph 3.4 mph 81% 0.00 in 0.00 W/m2
22:49 28.7 °F 23.6 °F 30.25 in WNW 3.4 mph 3.4 mph 81% 0.00 in 0.00 W/m2
22:51 28.6 °F 23.5 °F 30.25 in West 2.3 mph 4.6 mph 81% 0.00 in 0.00 W/m2
22:52 28.7 °F 23.9 °F 30.25 in West 1.1 mph 3.4 mph 82% 0.00 in 0.00 W/m2
22:53 28.6 °F 23.8 °F 30.25 in West 2.3 mph 3.4 mph 82% 0.00 in 0.00 W/m2
22:54 28.6 °F 23.5 °F 30.25 in West 2.3 mph 3.4 mph 81% 0.00 in 0.00 W/m2
22:55 28.7 °F 23.6 °F 30.25 in West 1.1 mph 3.4 mph 81% 0.00 in 0.00 W/m2
22:56 28.7 °F 23.6 °F 30.25 in West 2.3 mph 3.4 mph 81% 0.00 in 0.00 W/m2
22:58 28.7 °F 23.6 °F 30.25 in West 1.1 mph 4.6 mph 81% 0.00 in 0.00 W/m2
22:59 28.7 °F 23.6 °F 30.25 in West 3.4 mph 4.6 mph 81% 0.00 in 0.00 W/m2
23:00 28.8 °F 23.7 °F 30.25 in Calm   4.6 mph 81% 0.00 in 0.00 W/m2
23:01 28.8 °F 23.7 °F 30.25 in West 1.1 mph 4.6 mph 81% 0.00 in 0.00 W/m2
23:02 28.8 °F 23.7 °F 30.25 in West 1.1 mph 1.1 mph 81% 0.00 in 0.00 W/m2
23:04 28.8 °F 23.7 °F 30.25 in West 1.1 mph 3.4 mph 81% 0.00 in 0.00 W/m2
23:06 28.8 °F 23.7 °F 30.26 in West 2.3 mph 3.4 mph 81% 0.00 in 0.00 W/m2
23:07 28.8 °F 23.7 °F 30.26 in West 2.3 mph 2.3 mph 81% 0.00 in 0.00 W/m2
23:08 28.7 °F 23.6 °F 30.26 in West 1.1 mph 2.3 mph 81% 0.00 in 0.00 W/m2
23:09 28.7 °F 23.3 °F 30.26 in West 1.1 mph 2.3 mph 80% 0.00 in 0.00 W/m2
23:11 28.7 °F 23.6 °F 30.26 in Calm     81% 0.00 in 0.00 W/m2
Peotone Weather Data
Compliments of Weather Underground